GFSSW_850_rhum_057.txt.gz
RH
29 26 26 24 23 23 24 21 22 25 26 27 29 16 8 7 4 4 22 18 24 12 13 39 42 30 21 16 15 14 14 12 9 8 9 10 12 10 15 16 21 28 32 38 63
28 27 24 27 21 24 32 18 15 17 22 18 17 18 12 13 6 8 19 19 21 9 14 31 33 24 18 15 14 13 12 10 7 7 9 9 11 11 11 14 17 21 30 52 63
39 35 31 27 25 26 30 20 24 16 17 22 16 13 13 19 32 16 31 13 28 31 16 25 25 22 17 14 13 12 13 9 8 9 10 10 11 11 11 13 15 19 24 43 58
58 51 41 39 38 46 41 26 20 15 21 20 20 15 13 26 15 22 10 5 18 23 38 25 23 19 16 13 11 13 10 9 8 9 11 11 12 12 13 14 23 27 33 43 48
90 62 64 50 44 45 36 30 27 19 25 29 18 15 14 39 34 19 16 11 41 40 36 25 21 18 16 11 10 11 10 9 9 8 11 13 13 13 12 14 26 32 44 41 43
54 89 70 57 53 48 34 28 25 30 29 24 18 21 58 42 26 22 28 25 20 42 34 24 22 17 13 10 10 9 12 11 10 10 10 13 13 13 14 16 27 35 43 45 47
53 57 59 60 56 55 41 26 34 28 28 24 23 32 61 28 23 27 39 38 16 15 25 33 25 17 14 13 12 12 13 12 10 10 11 12 13 13 12 16 25 33 40 45 51
66 63 61 52 56 53 39 29 34 28 28 25 31 82 48 25 24 25 29 41 33 19 21 28 25 26 18 15 14 15 14 16 11 10 10 11 17 11 13 21 22 28 34 44 48
74 61 48 50 63 52 40 33 38 36 38 40 69 77 36 28 22 21 32 39 38 20 19 24 24 25 22 20 21 18 19 16 15 10 10 13 17 11 17 22 20 23 31 38 44
84 59 46 47 58 54 41 52 58 60 79 84 69 74 46 17 28 41 44 36 53 25 20 18 23 24 21 20 26 20 19 17 15 11 12 11 15 13 14 18 20 22 26 33 39
81 57 48 48 60 57 59 59 48 59 47 37 31 43 31 36 34 36 56 55 47 34 19 16 22 24 23 20 17 16 16 15 13 10 12 13 12 12 11 12 15 22 23 30 34
87 50 44 49 62 59 78 64 75 85 76 53 50 49 43 39 42 33 45 40 50 50 22 24 25 16 14 15 15 16 17 17 13 11 14 12 10 10 10 11 13 18 22 26 34
88 50 43 44 65 77 73 75 77 86 61 39 37 39 42 43 38 30 34 32 51 58 50 28 18 19 18 18 17 18 19 18 17 12 14 13 12 11 10 10 12 16 17 20 29
91 81 47 48 80 78 69 71 79 90 68 20 24 35 42 40 37 32 23 33 34 46 44 40 16 21 22 21 20 24 16 16 16 17 21 12 18 12 11 11 13 14 15 18 24
88 87 49 60 90 88 73 81 84 90 46 13 26 35 36 32 27 26 23 21 33 32 30 33 23 20 24 21 19 22 16 16 18 20 20 18 18 15 11 12 11 11 13 17 22
93 88 59 65 88 83 79 93 83 88 38 18 20 22 22 23 29 26 34 27 21 25 22 25 22 23 27 19 16 15 18 18 20 21 31 22 18 16 13 11 12 10 10 12 21
90 88 66 90 82 94 92 78 57 43 17 24 26 23 22 24 25 29 36 34 32 39 32 20 27 21 21 24 17 18 22 31 33 34 35 19 20 17 12 12 12 11 10 12 16
87 85 84 79 75 93 93 55 54 20 22 22 25 21 22 23 26 26 37 40 30 29 33 27 38 24 22 24 22 21 23 30 39 40 28 18 24 16 12 12 12 12 11 12 18
86 83 77 75 82 82 83 70 28 21 20 26 20 18 20 24 25 24 28 39 28 25 32 25 18 15 20 21 22 24 28 18 27 29 36 21 20 15 14 13 12 11 11 13 16
80 92 74 69 81 86 86 57 28 24 29 25 24 24 29 30 28 25 33 38 40 29 19 23 27 14 18 23 22 23 18 27 28 44 46 27 27 27 16 15 14 13 12 12 14
85 97 57 75 84 97 87 50 30 23 30 31 28 34 30 35 32 30 35 37 38 37 28 22 30 26 23 29 28 27 30 29 24 28 38 40 27 16 21 22 21 18 14 17 18
82 93 62 87 94 76 77 42 33 28 29 29 30 35 38 35 37 34 31 29 37 40 54 31 34 35 39 21 21 22 27 32 36 43 30 38 33 19 20 19 19 18 17 17 17
76 74 61 93 85 74 50 44 38 33 30 30 31 29 28 35 41 32 29 27 30 38 54 51 37 42 36 30 26 27 25 25 28 30 50 55 36 17 17 18 18 18 18 18 18
92 92 60 91 78 61 52 55 49 40 33 28 28 27 36 38 33 38 32 26 29 31 40 54 51 34 36 33 23 32 30 28 30 42 39 40 32 22 21 20 17 16 19 21 20
95 83 63 75 57 61 54 64 48 50 36 31 34 32 34 40 35 39 36 30 26 31 34 64 65 51 28 32 30 28 32 32 33 31 37 31 30 21 19 18 15 16 16 17 19
96 74 55 53 50 46 49 66 56 45 41 40 38 31 32 38 36 43 38 45 42 30 35 55 74 56 56 32 32 36 31 28 26 24 26 24 24 17 16 17 16 17 16 18 22
91 84 88 59 48 55 56 41 39 35 43 46 37 38 42 38 40 48 49 60 47 44 45 44 50 73 72 40 36 41 34 30 29 25 26 30 21 15 16 16 18 21 26 28 33

GFSSW_850_rhum_060.txt.gz
RH
17 16 20 26 26 29 27 20 16 15 16 15 19 20 19 16 15 8 27 15 18 21 20 16 38 33 28 19 15 13 16 17 14 12 9 10 11 11 10 14 13 19 24 35 55
34 24 17 21 28 18 18 17 16 13 14 15 14 16 20 14 16 13 17 19 19 19 16 19 31 32 26 20 16 13 17 15 11 8 8 8 10 10 9 12 14 15 19 35 54
52 59 42 23 26 26 24 21 14 14 18 18 13 12 18 16 36 24 28 9 7 8 30 17 24 26 25 19 15 13 16 12 10 8 8 8 8 9 10 11 11 22 19 42 53
69 51 55 64 39 29 21 22 20 27 28 29 21 12 13 17 30 27 19 17 10 30 41 26 26 22 21 19 15 14 12 12 10 9 8 9 9 10 10 11 12 20 24 28 43
63 36 39 43 38 25 24 27 26 24 39 45 33 29 17 33 35 27 27 21 19 42 34 30 27 20 21 18 15 13 11 10 10 9 8 8 10 11 11 11 13 23 30 33 36
66 37 37 32 27 21 22 26 22 26 35 33 36 36 73 49 19 25 23 21 14 34 36 30 23 19 17 16 14 12 10 10 9 10 9 8 9 11 11 11 13 23 30 36 41
84 69 52 41 26 17 19 20 21 29 30 34 37 46 74 34 21 22 22 31 26 14 14 20 26 26 19 17 14 11 12 10 10 11 10 10 11 12 11 11 12 20 28 35 44
84 77 51 41 23 17 22 14 23 34 40 39 40 65 66 20 26 23 22 23 26 32 21 12 19 27 26 20 18 15 15 17 12 11 10 10 16 11 10 11 12 18 25 34 38
84 69 42 32 22 21 18 15 33 57 60 57 57 82 49 29 26 24 21 31 32 38 26 18 16 24 24 29 29 20 22 19 15 10 10 11 15 10 10 14 17 16 20 30 38
86 79 49 31 24 26 23 52 42 50 66 84 77 61 57 26 27 30 36 31 36 42 33 32 18 22 26 29 36 26 22 20 18 12 12 12 13 11 12 15 18 17 16 25 34
90 81 63 37 29 28 56 66 49 60 59 45 33 46 36 29 28 28 44 39 47 56 41 32 22 23 30 26 25 21 19 18 15 12 12 14 13 10 9 11 15 17 18 20 30
84 83 51 30 28 38 72 64 58 69 75 57 48 41 36 35 32 30 40 42 48 76 61 54 30 14 16 21 23 23 23 21 16 12 12 12 13 10 9 10 11 12 18 21 25
86 78 66 31 28 77 73 67 59 72 69 45 27 26 29 34 32 27 25 41 38 48 75 67 31 18 17 16 21 22 23 21 19 15 12 14 17 14 9 8 9 12 12 18 22
88 87 81 36 63 84 66 61 67 78 74 36 28 30 37 32 31 27 23 28 30 50 64 74 52 34 38 23 20 25 16 16 17 19 23 14 24 14 11 10 10 10 13 15 17
87 82 84 51 47 67 78 65 73 86 70 14 22 29 30 29 27 22 22 26 33 44 70 80 50 53 38 30 22 25 19 20 19 21 23 20 22 16 11 12 11 12 13 14 15
83 81 82 49 88 83 84 86 89 97 74 17 17 21 19 20 26 23 29 22 19 24 47 46 38 43 29 18 20 19 20 22 22 24 36 24 23 21 15 12 10 10 10 13 15
80 81 81 92 83 75 76 87 93 70 15 17 21 18 17 16 20 25 33 34 28 36 36 35 35 24 27 32 23 24 27 36 42 42 44 23 24 23 15 11 11 11 10 10 16
80 76 77 85 81 77 85 83 72 24 19 16 18 18 17 18 22 25 32 36 28 25 32 55 60 29 24 29 29 29 30 37 56 56 36 21 26 20 13 10 12 12 11 12 16
76 85 82 76 70 78 85 97 37 26 16 18 20 15 12 17 22 23 27 32 28 27 39 49 40 22 25 27 24 34 47 23 34 34 47 38 20 14 12 13 11 11 11 11 13
96 88 67 66 72 74 86 70 39 22 17 24 24 12 21 19 25 22 40 45 39 25 25 28 46 25 19 22 24 31 27 42 34 53 62 36 26 23 19 16 13 13 13 12 14
96 82 54 60 75 78 93 60 37 30 21 27 28 20 23 24 26 28 28 47 39 38 38 26 34 35 25 24 30 31 35 40 40 32 52 54 45 32 27 24 22 20 18 18 17
92 91 59 82 85 70 90 56 38 27 22 22 27 29 30 29 30 30 30 28 32 36 54 49 34 42 43 28 21 24 29 32 54 58 39 50 41 26 27 22 23 22 18 17 17
96 63 54 82 94 75 50 46 38 33 27 26 28 25 24 27 33 28 28 24 28 30 49 48 45 53 40 36 33 32 31 28 34 52 92 73 56 24 19 20 19 20 19 20 20
98 82 53 81 67 60 62 50 46 30 29 28 25 23 24 28 27 32 29 25 26 26 39 40 66 58 50 56 66 65 33 39 40 82 81 81 51 44 36 26 19 18 17 17 17
99 81 55 83 63 54 52 72 52 40 33 28 31 27 26 35 29 30 26 25 24 32 38 61 93 61 48 44 40 40 45 35 43 62 74 48 41 44 44 41 19 15 16 17 20
98 73 48 44 55 66 51 56 49 53 38 38 33 26 26 30 30 32 32 49 35 35 36 63 82 75 65 46 34 34 38 63 59 28 29 40 56 32 27 16 17 18 19 23 29
98 89 97 73 65 52 70 48 36 33 39 52 41 40 30 41 54 52 44 61 57 55 49 56 70 90 74 51 42 47 34 42 46 24 23 30 24 24 18 17 18 23 25 38 41

GFSSW_850_rhum_063.txt.gz
RH
38 24 17 12 10 10 9 8 9 10 9 10 9 9 12 13 21 22 20 16 17 19 18 18 18 28 29 40 31 26 29 27 23 20 17 11 13 12 11 12 16 16 16 21 46
31 24 17 17 14 11 13 14 11 9 9 9 9 8 9 11 18 18 25 20 21 17 18 18 14 35 36 30 29 24 27 23 16 15 15 11 12 11 10 14 14 17 34 42 46
47 31 26 18 15 24 16 14 12 11 9 8 9 10 12 16 20 30 21 16 23 17 13 14 22 22 36 30 28 23 26 18 15 14 14 13 10 10 11 13 14 28 38 36 38
60 49 31 30 27 20 24 16 11 9 9 10 11 14 15 26 44 26 23 28 26 17 30 40 23 19 29 36 28 27 19 17 15 14 13 13 9 11 11 12 15 19 30 40 48
78 62 47 37 29 25 17 13 11 10 12 18 22 32 37 60 27 10 25 26 26 24 41 35 26 25 33 26 24 24 19 16 14 12 13 12 11 11 12 12 17 22 23 35 40
80 74 60 34 25 19 12 11 10 12 17 32 34 41 85 91 12 23 26 27 24 17 27 33 29 26 25 23 23 20 18 16 13 12 11 12 12 10 10 11 11 24 27 32 36
88 75 63 35 19 12 11 9 9 10 33 49 44 57 98 25 14 16 22 23 24 29 15 17 17 18 26 32 21 19 22 17 14 12 11 12 16 13 9 10 11 23 30 35 37
88 81 67 40 16 15 12 10 7 9 45 62 69 76 82 21 31 27 19 22 24 25 25 23 18 16 24 27 26 28 25 26 16 14 13 14 20 15 10 10 12 12 29 35 37
78 87 73 39 13 14 11 24 48 42 39 58 67 81 83 39 29 27 26 20 27 27 33 30 22 17 20 33 39 32 38 29 20 14 14 16 18 14 10 11 13 15 26 34 38
83 77 74 44 15 14 14 57 40 39 55 69 82 100 64 33 29 28 29 37 27 35 40 35 28 23 28 37 56 46 34 26 25 18 16 16 16 14 11 14 19 18 19 34 39
87 81 65 29 17 20 62 64 58 53 54 60 64 67 45 40 32 27 30 38 43 52 60 37 39 40 24 30 30 31 31 33 27 19 20 19 16 15 16 15 24 19 18 28 38
81 75 62 21 18 59 74 74 70 74 74 64 54 49 38 30 37 32 27 44 54 74 71 65 55 37 24 20 32 31 32 34 26 19 21 20 18 15 14 14 17 22 19 18 37
81 82 76 25 18 67 70 70 72 65 81 63 45 45 42 35 36 33 28 44 50 64 80 83 58 37 38 27 20 30 35 34 30 22 18 18 20 18 15 14 12 14 16 18 35
80 88 80 32 37 67 65 73 69 69 85 52 35 28 31 32 34 29 27 25 44 49 69 78 62 53 49 56 28 23 19 22 22 24 30 20 36 23 18 16 14 12 16 19 37
83 80 80 59 51 52 79 76 74 83 97 34 28 30 32 32 28 26 24 24 35 56 72 66 71 66 59 42 34 42 25 27 28 30 30 27 35 27 21 20 14 15 14 16 32
82 81 79 49 82 77 79 76 75 92 89 21 26 31 32 32 30 29 24 25 25 31 50 50 52 67 66 50 46 37 46 36 34 33 48 35 33 34 25 19 16 13 16 14 25
84 80 77 72 38 65 76 76 84 91 28 22 24 20 21 22 31 31 37 33 34 36 38 38 47 40 54 66 46 40 60 63 58 58 60 31 34 29 24 18 17 16 16 14 17
71 70 71 63 42 69 85 87 88 44 39 18 20 19 23 18 22 31 40 48 32 31 40 40 66 38 33 35 56 42 48 72 64 67 48 30 39 30 20 16 14 13 14 15 19
70 69 72 54 71 77 92 93 68 36 23 26 24 24 22 15 21 26 39 43 35 34 42 49 48 31 28 32 35 51 52 34 56 65 67 54 39 20 19 17 15 13 20 21 21
78 73 70 55 72 81 97 71 57 36 34 34 33 26 24 24 26 29 39 52 61 41 30 37 49 32 32 30 36 41 32 63 85 91 95 49 50 51 34 20 22 19 23 21 22
86 91 47 63 67 86 94 77 50 41 38 33 32 35 32 32 27 31 40 50 43 44 43 48 48 41 31 34 42 42 54 84 77 64 71 69 59 43 35 33 30 28 22 19 19
92 99 69 69 88 89 88 58 45 44 43 42 36 34 38 37 40 36 34 46 33 36 57 54 72 57 37 25 26 35 42 72 100 83 70 63 71 42 33 25 27 26 23 27 32
94 83 49 70 98 93 68 54 52 51 49 43 37 31 31 37 44 34 33 37 30 36 53 45 70 74 56 38 34 45 34 50 54 59 97 98 66 51 49 45 24 21 20 31 39
96 98 74 68 75 96 85 73 59 44 42 39 35 32 38 39 35 39 38 32 38 40 38 41 65 80 85 70 77 80 59 36 48 84 78 87 73 71 61 59 44 20 22 38 41
94 95 72 96 81 79 72 66 66 83 44 35 36 36 41 45 40 44 38 35 31 38 51 71 85 76 73 60 61 74 69 50 58 58 90 74 79 62 78 68 42 24 36 44 47
97 88 64 74 60 83 97 77 64 53 77 62 62 40 34 41 44 51 66 59 66 52 60 65 83 81 76 55 53 58 58 45 65 64 59 69 84 74 74 70 56 33 43 48 52
95 96 96 82 76 83 74 75 77 59 45 67 64 76 68 65 66 57 55 58 58 62 66 82 86 88 89 64 74 69 45 66 73 72 64 92 57 66 70 54 42 46 45 49 52

GFSSW_850_rhum_066.txt.gz
RH
44 42 42 34 27 16 14 8 9 8 7 8 7 5 5 5 3 4 8 21 22 14 19 20 19 20 35 40 32 32 44 48 35 29 23 16 17 13 12 20 20 20 26 18 36
54 40 32 36 23 17 13 12 9 10 8 9 12 8 5 6 4 2 19 20 19 19 14 15 20 18 40 39 41 41 47 43 27 22 20 16 16 15 12 18 19 26 24 29 40
62 29 22 14 12 13 14 14 13 13 16 16 20 13 6 8 6 13 16 26 28 20 23 28 12 24 36 37 36 32 41 27 21 19 17 17 16 15 13 15 15 34 42 47 46
61 42 26 19 19 10 14 16 12 14 22 21 30 23 10 10 7 29 24 23 27 23 34 41 39 30 25 46 36 40 29 26 23 20 19 18 15 14 12 12 14 17 26 36 39
85 62 37 25 11 10 10 12 11 12 17 24 45 38 24 35 8 11 24 24 26 26 23 40 37 27 29 29 31 39 33 28 24 20 18 16 16 16 13 11 16 25 34 35 37
86 70 50 31 12 9 10 9 9 9 13 29 58 53 46 76 6 19 23 25 28 27 23 18 32 20 27 33 35 26 28 27 23 19 17 16 15 14 12 11 22 29 37 40 40
63 61 47 36 13 9 8 8 7 17 56 46 58 66 75 17 7 13 21 23 24 28 30 22 22 18 19 33 29 26 30 24 22 18 18 14 16 16 12 11 12 25 33 39 42
73 60 38 29 19 9 7 6 18 47 54 39 50 69 54 16 33 25 24 19 23 25 26 25 24 23 17 27 28 32 29 35 22 17 16 16 22 15 12 12 11 14 24 36 40
81 76 60 27 12 10 8 16 14 38 41 48 57 70 72 37 32 29 32 29 21 25 23 25 27 24 18 34 43 39 48 36 27 18 18 18 22 16 13 12 12 11 22 34 40
72 70 56 22 10 11 34 34 31 65 67 72 91 95 52 33 36 32 29 38 31 28 36 39 34 26 30 43 60 52 44 33 30 21 22 25 23 18 14 14 14 12 16 31 39
84 77 62 24 11 39 63 57 69 56 55 56 70 70 40 39 42 32 27 42 35 47 60 43 49 54 32 31 36 35 37 41 33 28 29 28 26 26 20 15 18 18 22 36 39
81 78 71 29 12 51 74 86 86 91 78 60 51 50 52 47 55 26 34 38 54 68 68 69 68 45 32 26 27 35 39 43 33 25 27 27 29 20 18 17 17 22 25 37 45
77 80 74 41 13 55 69 83 82 79 80 64 52 54 42 39 51 36 36 44 56 75 79 77 62 48 41 40 35 30 31 39 38 29 24 30 30 22 18 15 14 16 18 23 40
72 76 77 47 32 52 70 76 71 69 96 60 51 40 35 35 44 33 33 36 53 64 79 83 64 66 65 55 43 59 23 22 27 31 52 29 50 27 22 21 18 16 17 23 40
77 71 82 70 45 56 73 65 59 79 68 33 33 29 33 34 28 27 31 28 38 63 68 66 71 76 74 58 43 46 44 49 46 49 46 36 42 28 24 24 21 20 16 18 27
72 80 80 71 58 58 80 60 68 89 73 37 32 34 42 34 32 26 27 26 25 40 63 56 62 62 60 51 48 53 52 50 42 47 67 43 42 43 31 22 19 18 15 16 37
75 75 80 67 55 48 71 71 87 97 30 30 34 34 39 42 39 36 35 36 41 40 44 37 54 58 59 68 54 57 70 69 68 69 73 39 43 38 28 24 22 22 18 16 35
87 76 70 57 52 62 83 90 98 48 46 29 32 25 27 22 30 41 43 41 36 30 45 47 58 43 57 64 67 61 76 84 91 92 66 34 45 35 23 19 18 17 16 20 44
85 78 70 42 70 83 92 100 66 48 37 44 40 28 24 21 24 38 48 50 40 33 44 49 52 36 45 43 52 76 94 63 85 66 91 60 43 31 31 23 19 19 26 34 48
85 85 42 48 72 88 91 76 62 41 40 42 53 39 44 39 37 32 42 54 66 54 34 40 57 36 36 36 40 50 61 98 98 97 94 57 48 52 40 38 29 32 35 44 47
84 92 39 58 68 97 93 78 54 39 37 46 57 53 43 44 39 39 54 63 50 61 49 60 53 48 40 44 59 60 96 92 82 82 96 77 72 64 51 37 38 43 46 48 44
92 97 52 95 89 92 90 67 52 47 43 45 48 51 47 40 43 41 41 48 34 41 59 52 71 87 53 32 30 53 74 75 99 86 81 86 95 74 55 42 32 43 49 52 54
98 85 49 62 98 94 76 68 60 57 53 46 50 44 44 47 44 42 42 43 33 45 52 42 68 88 60 43 35 50 50 64 75 89 98 98 84 77 60 63 58 40 50 54 58
98 98 65 81 75 90 97 86 72 54 55 51 52 48 46 47 44 43 38 42 35 41 40 45 68 80 89 89 80 84 67 63 86 100 88 90 72 82 85 81 57 47 52 56 60
98 94 84 96 94 96 85 82 80 79 68 63 55 50 47 51 52 53 47 52 49 52 62 65 70 82 76 69 59 58 85 79 74 80 85 69 68 70 89 80 71 62 54 56 59
97 89 89 94 70 70 81 86 81 84 60 65 81 82 77 66 46 58 64 55 73 64 67 78 78 84 85 59 50 61 72 75 94 87 61 62 69 70 93 93 72 60 56 62 67
99 97 89 80 83 79 78 65 76 53 76 62 77 90 86 73 74 68 62 59 59 62 73 76 82 87 86 67 62 79 59 58 61 75 80 94 67 79 84 86 71 54 63 68 70

GFSSW_850_rhum_069.txt.gz
RH
38 34 28 22 20 14 11 11 11 10 9 9 8 8 7 7 5 3 3 8 22 21 18 11 21 26 35 35 35 36 47 56 40 34 26 19 19 16 15 16 19 28 26 22 34
68 65 55 40 18 15 12 9 7 7 7 7 7 6 6 10 6 2 17 21 19 19 16 17 18 25 39 40 39 50 61 42 33 25 25 21 20 18 17 17 16 27 32 22 36
71 70 57 46 36 17 11 11 9 7 6 9 10 7 5 12 12 15 27 27 25 21 24 33 25 30 36 40 44 43 45 34 30 25 24 22 20 19 18 20 16 26 26 25 40
61 83 65 52 37 14 9 9 8 8 7 8 13 22 11 25 7 19 21 22 25 26 24 45 50 34 26 47 39 47 36 32 32 28 25 25 21 19 18 17 15 14 19 30 39
53 86 62 44 27 11 8 6 6 7 9 14 30 35 57 50 11 4 23 24 24 26 26 32 48 41 29 30 37 46 40 34 32 30 27 24 23 21 19 16 15 13 33 35 34
76 63 55 44 21 12 8 6 6 6 16 48 58 51 87 88 6 17 13 17 26 28 27 26 29 26 29 34 37 31 33 34 32 33 29 26 23 19 17 15 13 17 43 35 32
70 80 74 57 22 9 8 6 6 10 40 48 56 51 100 36 16 8 16 22 25 27 28 29 24 23 20 29 30 30 36 33 30 26 24 20 24 22 15 14 13 27 42 37 31
71 60 54 41 20 10 7 5 6 15 19 38 51 56 77 21 21 27 28 14 19 24 27 28 26 26 20 20 31 35 34 44 29 25 22 19 29 20 14 13 14 25 47 38 33
85 75 61 34 14 9 8 13 18 34 48 48 59 68 65 37 31 31 31 32 24 20 25 25 32 29 22 30 46 45 56 44 34 23 22 20 27 20 16 16 16 15 40 41 35
84 76 57 30 16 11 33 20 37 67 66 74 93 93 44 40 40 31 31 30 36 27 28 33 36 34 31 46 55 57 51 44 38 27 30 32 33 25 20 20 18 16 16 36 38
75 66 61 31 18 23 54 33 54 66 61 62 62 70 49 48 42 37 32 38 36 38 55 51 56 62 42 37 37 43 44 47 39 30 33 35 33 28 24 25 21 18 17 25 32
65 63 59 29 21 38 73 80 86 93 98 66 48 46 49 52 63 28 32 36 52 62 71 70 73 52 44 38 32 34 39 45 37 29 31 36 35 27 24 23 19 17 18 18 31
66 62 68 33 19 50 65 82 78 81 94 60 48 53 50 57 59 43 26 34 59 75 80 76 62 55 53 48 47 43 37 42 44 34 34 36 36 34 26 19 18 16 16 18 19
66 70 72 36 47 28 74 76 65 77 94 55 55 48 49 50 53 24 34 39 56 69 77 83 68 70 74 70 54 58 34 38 29 33 55 34 62 40 32 26 22 19 22 25 35
66 67 70 64 62 45 58 56 54 82 68 26 41 35 40 38 32 35 33 34 61 64 74 70 77 88 80 70 54 54 56 57 53 56 51 46 55 44 27 30 26 22 17 17 20
62 72 68 62 52 56 51 54 69 83 60 36 34 40 42 36 33 30 32 29 30 43 67 64 60 62 67 57 50 50 62 57 57 58 74 48 50 51 38 30 24 20 17 17 17
66 77 72 64 55 51 46 64 81 98 30 39 38 36 44 46 40 32 35 37 43 47 49 39 49 63 61 70 58 64 87 86 79 79 69 46 51 40 33 29 27 26 21 19 17
67 72 60 57 58 60 63 86 88 34 48 38 40 39 46 39 43 41 40 44 37 32 43 49 45 61 64 60 65 62 90 96 89 88 76 50 57 37 35 31 31 23 20 17 19
71 72 52 54 52 71 88 97 52 49 43 48 43 43 40 36 38 45 48 46 40 34 42 50 53 39 61 56 66 87 92 85 93 88 90 70 47 34 41 42 45 31 20 18 23
78 67 48 61 63 82 81 72 72 45 42 40 59 52 56 49 44 45 52 51 66 40 33 40 56 39 43 55 65 86 77 100 100 98 95 66 67 85 62 53 55 62 62 47 55
79 66 58 72 68 78 88 78 62 44 46 49 62 60 49 55 44 45 50 67 66 58 45 53 49 49 42 61 73 92 97 97 93 90 93 87 93 71 75 69 61 62 65 66 63
88 97 63 67 95 88 91 67 57 54 48 52 53 57 59 52 53 40 47 50 38 44 63 52 74 92 71 43 51 63 78 95 99 98 93 100 93 74 74 63 59 60 66 71 79
97 92 62 63 96 96 81 72 64 64 60 56 56 51 50 57 73 48 42 42 38 46 47 45 69 90 64 54 57 72 79 83 86 93 89 97 83 77 70 69 60 61 65 73 86
88 98 65 88 82 86 91 85 77 79 72 72 61 54 60 61 48 59 49 41 40 42 44 47 70 78 88 89 82 96 81 75 89 100 94 93 86 88 80 81 70 75 62 73 82
97 94 92 99 97 80 74 80 93 88 70 71 72 75 91 86 57 67 53 53 57 59 64 59 64 81 78 74 69 71 77 79 96 94 99 69 68 67 85 88 90 76 64 71 75
99 93 93 94 79 82 81 86 71 79 56 86 78 85 81 96 76 87 59 57 61 68 71 77 78 84 81 69 60 56 52 64 78 86 93 81 69 70 86 91 91 92 77 77 81
100 98 92 83 80 77 67 61 77 61 56 55 64 94 95 82 76 81 76 72 66 61 72 75 83 87 80 72 72 74 66 55 70 78 75 98 72 86 90 78 86 95 90 86 84

GFSSW_850_rhum_072.txt.gz
RH
32 25 17 18 14 8 7 9 10 9 8 7 8 8 6 4 3 2 1 2 11 15 13 14 15 26 33 34 37 35 44 56 39 35 26 21 20 18 17 17 16 16 25 36 37
36 35 34 26 18 13 10 8 9 10 8 8 9 10 9 8 4 3 14 23 24 24 21 22 21 24 36 40 40 47 61 37 36 28 26 22 24 23 19 20 18 15 20 27 51
35 27 32 25 23 15 12 8 8 8 9 8 9 11 13 9 8 25 29 26 23 23 23 23 27 27 38 44 46 50 48 35 32 26 26 27 25 22 21 25 19 16 16 15 19
36 35 30 29 14 9 8 9 7 7 8 8 10 25 33 18 5 24 25 25 26 24 24 45 47 31 31 43 38 54 44 38 32 29 31 31 27 26 22 22 19 18 17 16 20
47 54 47 37 21 11 8 8 7 7 7 9 33 53 56 42 8 6 24 26 24 25 26 33 50 41 30 28 32 50 46 38 35 33 31 30 32 29 25 23 22 20 15 13 23
60 46 44 39 23 11 8 6 6 6 8 15 40 58 79 75 10 10 17 15 23 24 27 32 31 37 35 32 33 30 34 35 34 35 34 34 33 29 26 24 20 17 15 13 20
70 62 62 57 35 11 6 5 6 10 12 13 30 56 87 26 15 14 11 15 22 26 28 29 29 24 22 24 24 35 43 38 37 35 39 31 34 30 21 19 17 15 14 13 22
80 78 71 55 35 10 6 5 14 23 26 34 40 63 64 17 24 20 32 20 20 25 27 28 32 27 27 23 28 39 41 51 34 33 29 25 38 27 20 18 17 15 14 14 26
80 81 71 47 38 11 6 8 29 42 63 61 60 69 59 39 37 36 33 32 25 22 23 26 25 31 25 27 42 48 56 52 42 28 26 27 33 22 18 20 19 18 16 18 29
74 68 58 35 24 12 8 16 45 66 69 77 95 93 39 43 44 39 34 31 32 27 33 38 37 35 33 41 53 56 57 54 49 31 30 32 36 32 24 23 24 22 21 17 20
68 59 46 30 16 13 24 26 39 64 53 55 47 68 40 34 41 41 38 38 37 39 44 49 55 56 44 39 34 42 50 54 44 35 38 40 39 33 28 27 28 23 23 19 17
68 56 47 34 19 38 71 79 91 91 97 58 54 67 50 46 64 32 37 34 51 55 70 68 72 53 48 44 40 40 41 41 38 36 38 42 41 35 30 29 25 23 21 19 18
64 57 52 32 27 26 67 78 72 83 100 70 45 51 50 55 62 52 31 34 57 64 78 71 54 58 58 61 59 54 54 51 41 36 35 39 39 34 27 29 23 20 18 17 16
66 54 55 34 38 28 70 57 54 84 94 54 52 48 52 54 61 39 40 32 59 63 75 79 65 67 74 82 66 72 47 44 40 45 54 36 58 40 36 33 29 24 20 19 22
57 60 64 58 49 48 37 36 56 95 23 20 46 45 44 48 35 39 37 43 64 67 74 66 76 81 88 74 62 69 53 64 58 66 58 53 57 42 38 37 32 28 21 18 19
56 58 60 55 54 52 32 35 69 53 20 34 38 43 44 38 35 33 37 33 37 55 68 69 58 72 72 60 60 54 68 61 62 70 88 58 56 51 44 36 30 23 20 18 17
50 46 55 57 64 52 30 61 49 43 27 44 48 39 40 47 42 34 40 39 44 52 51 40 44 62 60 68 61 66 79 91 89 88 86 50 58 43 30 29 37 42 34 25 18
47 42 49 57 52 42 36 68 34 30 50 44 42 42 46 42 42 42 40 48 40 35 43 46 43 61 67 60 70 82 70 92 89 88 78 56 64 47 43 43 52 58 57 35 24
45 43 48 54 53 48 69 86 31 55 49 53 44 55 50 46 47 47 47 45 40 36 46 48 53 42 64 58 55 75 96 82 100 100 98 69 55 50 64 65 59 65 70 66 35
63 54 53 82 64 71 85 67 67 50 51 44 56 58 64 58 52 50 49 50 52 38 32 40 58 40 59 64 74 75 83 99 100 98 89 69 76 95 88 77 69 75 79 80 65
69 62 79 75 76 72 98 80 66 47 54 62 66 65 62 56 57 54 46 67 71 60 43 44 54 50 65 66 84 83 88 98 96 86 98 95 95 78 81 72 76 77 88 96 91
71 92 71 74 87 93 100 76 58 62 52 56 60 64 66 61 72 55 58 53 58 59 84 65 87 95 74 49 57 77 92 89 100 99 97 100 97 76 68 65 67 77 87 98 100
86 89 77 70 92 100 88 86 68 70 66 66 63 54 50 63 80 78 70 57 60 60 69 63 94 88 57 61 67 81 79 82 94 100 100 97 88 76 70 71 76 72 84 87 94
81 98 70 84 87 93 98 88 81 83 84 77 75 73 75 72 54 80 83 67 62 68 52 48 73 66 63 68 78 83 66 67 98 100 97 94 85 86 84 85 80 70 78 80 83
92 93 95 98 96 84 82 77 85 91 92 74 82 90 96 93 72 80 64 83 68 62 63 54 64 78 72 71 70 72 72 66 77 91 100 88 88 73 84 84 89 71 76 74 74
97 97 94 96 80 83 81 81 82 82 66 65 95 91 78 94 77 95 85 76 95 63 80 81 91 80 71 69 63 57 43 54 57 74 81 85 84 62 88 90 94 86 75 78 78
97 97 92 84 81 78 74 65 69 66 64 64 63 76 85 80 82 79 81 96 94 82 79 75 85 81 71 70 68 52 58 48 58 74 82 89 68 86 92 86 91 94 88 88 86

GFSSW_850_rhum_075.txt.gz
RH
12 13 10 8 8 6 6 6 6 6 5 5 5 4 4 4 3 3 2 2 2 5 14 22 22 27 32 36 33 31 27 28 27 26 20 20 18 18 17 18 17 17 18 30 34
15 13 14 23 10 8 6 7 6 5 5 6 6 7 7 6 8 2 11 8 7 17 13 18 18 23 37 40 41 34 34 26 26 21 20 18 22 20 20 20 18 20 16 21 25
22 25 23 17 12 8 6 6 7 7 6 6 6 7 13 16 10 15 28 24 26 25 25 26 27 30 39 48 48 43 35 33 29 25 24 23 22 23 19 22 19 21 20 20 24
30 32 26 20 17 10 8 8 7 7 6 6 7 10 31 31 10 19 29 27 27 24 29 34 33 28 31 32 40 40 44 36 29 27 28 28 27 25 26 25 22 22 21 21 23
53 45 30 17 8 7 7 7 6 6 5 8 14 23 39 50 19 6 26 25 25 27 29 48 42 34 31 27 31 38 32 33 32 33 33 30 30 28 25 26 22 24 24 20 17
63 58 52 28 16 9 7 6 5 5 8 15 20 31 59 83 13 13 10 22 25 25 29 39 35 39 37 30 30 30 32 30 30 30 31 30 29 34 28 26 25 26 20 17 15
65 56 50 27 13 9 7 5 4 5 9 18 30 45 66 17 17 17 14 14 15 18 25 30 29 33 26 23 26 31 34 32 33 32 30 34 38 37 31 29 28 22 18 16 14
55 62 47 24 17 8 7 5 7 9 24 43 53 64 47 15 21 22 28 30 18 19 26 29 29 29 26 24 24 31 35 37 33 32 30 30 26 22 25 24 22 20 18 15 14
49 50 40 23 15 8 6 9 18 40 63 62 68 80 56 37 39 40 37 34 26 23 25 28 28 30 27 28 32 39 40 44 37 26 27 30 31 23 23 25 22 21 20 19 18
62 54 40 31 9 7 7 21 49 62 66 72 96 91 41 48 47 42 36 33 30 26 35 35 36 36 34 34 39 39 45 46 45 32 30 32 32 25 25 25 25 24 24 22 19
64 49 32 17 9 12 14 25 34 50 35 38 44 58 40 33 34 41 36 39 35 38 37 46 43 45 41 41 36 32 36 36 31 29 31 31 34 31 28 27 26 24 24 22 18
64 44 34 23 18 20 52 62 80 73 94 45 55 61 44 44 61 39 43 37 49 52 61 63 59 45 40 39 38 39 42 42 36 29 28 28 30 30 28 26 26 24 23 23 18
60 48 35 25 25 20 58 56 65 84 96 63 44 51 50 57 71 58 37 36 51 55 66 53 48 53 51 56 60 57 60 57 55 43 36 35 34 28 23 25 25 25 24 22 21
50 39 34 30 28 24 48 32 55 88 81 33 44 50 52 54 59 47 44 35 55 46 60 67 55 58 63 65 65 70 52 52 53 53 55 33 46 33 28 26 25 23 23 23 21
38 40 39 41 39 34 25 26 61 95 12 16 48 46 46 47 40 40 38 42 51 61 62 51 72 80 71 54 59 59 54 57 57 60 59 53 55 38 32 32 26 24 25 22 20
35 43 47 45 46 34 22 35 68 27 10 22 38 36 32 42 37 37 38 36 46 60 68 61 58 63 59 56 56 52 60 58 55 60 77 53 52 45 34 28 29 30 35 36 30
37 42 49 49 39 30 20 60 23 14 22 44 48 34 40 41 42 35 41 40 44 54 51 39 42 53 56 58 56 53 62 73 76 81 63 42 55 45 34 33 51 53 52 54 37
30 35 47 46 46 32 34 32 11 26 43 44 42 39 45 42 40 42 42 46 40 35 41 40 44 47 59 48 52 66 60 74 78 74 66 51 55 44 60 56 59 64 68 66 48
33 38 52 60 46 37 38 50 23 67 51 50 36 55 53 46 48 41 48 43 39 34 41 43 43 39 59 55 44 72 79 63 100 75 91 52 45 61 57 61 63 71 81 83 75
40 48 71 64 59 55 65 47 54 52 54 53 50 61 65 40 48 39 44 57 64 37 33 38 47 40 69 59 66 65 73 100 98 86 78 53 57 78 76 74 70 79 88 97 90
44 57 81 77 69 54 79 67 60 52 58 59 65 61 51 32 36 33 46 58 62 70 42 40 54 52 65 66 68 77 76 97 98 80 78 85 92 77 82 76 83 86 92 99 100
51 80 74 66 76 94 82 70 61 57 50 48 57 56 60 54 71 60 56 54 62 71 71 74 80 68 53 46 51 58 66 86 95 89 93 90 78 86 78 71 78 85 90 99 100
69 74 76 64 86 94 77 81 74 68 62 64 65 58 55 56 68 62 68 61 71 74 91 70 98 94 75 67 64 71 75 96 96 98 95 92 84 83 82 68 74 82 88 95 100
72 85 78 77 83 84 92 79 70 80 89 97 79 67 77 71 60 60 72 67 77 84 84 71 65 93 71 57 61 72 56 57 92 96 95 97 86 82 85 87 70 71 82 89 96
80 93 93 97 92 82 82 76 79 89 82 75 96 93 91 92 70 67 54 58 69 79 93 89 76 82 63 61 65 57 54 45 50 70 89 63 71 71 75 82 91 73 69 82 86
94 96 91 96 85 76 74 61 69 71 59 62 88 65 67 91 80 91 83 71 77 80 97 97 80 79 62 66 54 50 38 43 52 49 56 67 72 55 57 83 90 85 73 75 84
83 90 87 85 79 72 66 61 65 65 63 63 64 68 66 90 91 95 89 92 94 98 100 91 89 69 58 61 50 40 44 38 48 53 60 73 61 68 85 84 86 85 79 83 89

GFSSW_850_rhum_078.txt.gz
RH
13 13 11 9 8 7 5 4 4 4 4 3 4 3 3 2 2 4 7 7 3 2 6 35 42 41 27 22 26 22 21 19 16 16 14 12 11 10 12 11 12 14 16 23 36
14 11 9 8 7 6 6 5 4 4 4 4 4 3 3 3 3 5 11 9 7 9 12 34 28 35 30 26 26 20 18 17 13 14 15 12 12 11 14 14 14 14 14 33 38
14 12 10 8 7 6 6 6 6 5 4 5 4 4 4 4 12 16 23 24 23 18 38 28 23 26 23 26 28 24 21 15 17 18 16 15 14 13 13 15 13 13 13 16 18
25 18 11 9 7 6 5 5 6 5 5 5 4 5 6 11 10 26 26 26 27 26 40 34 28 25 19 19 20 29 23 22 17 19 19 17 16 15 14 15 16 15 14 16 17
29 22 13 10 8 6 6 5 5 4 4 8 10 10 24 54 32 12 24 27 26 30 41 33 26 21 19 16 16 23 18 16 18 20 18 17 16 16 15 16 16 15 15 18 17
46 33 14 8 6 6 6 5 4 3 4 10 13 20 61 40 15 13 12 26 35 44 40 45 33 30 26 24 22 20 22 20 21 21 21 22 18 18 18 18 18 18 18 16 16
42 21 10 8 6 6 5 5 4 4 5 10 18 41 75 38 12 13 15 14 26 34 33 37 40 32 27 25 24 24 25 21 20 20 22 20 20 20 19 19 19 17 16 14 15
35 18 13 7 6 5 5 4 4 5 9 29 43 64 59 15 17 19 22 21 16 16 33 31 35 31 26 23 24 25 23 26 16 23 23 25 25 13 15 18 18 18 16 13 14
48 38 15 7 6 5 5 5 7 18 52 51 78 90 46 33 46 52 37 41 39 27 26 33 33 28 28 28 27 25 24 23 22 19 20 23 24 18 19 18 19 18 16 14 14
51 31 17 8 7 6 6 8 23 35 55 84 95 85 51 40 52 51 47 35 34 33 36 32 28 29 29 32 29 22 24 22 28 24 24 25 23 20 20 19 20 19 18 17 16
55 37 20 16 12 10 8 27 38 48 52 28 32 50 37 30 38 39 43 39 34 29 27 26 27 29 24 26 22 25 31 30 22 19 24 24 22 18 16 20 21 21 19 17 16
51 33 28 16 16 16 25 54 62 42 53 44 50 56 50 53 43 33 44 36 36 37 31 41 38 21 22 25 30 29 29 31 29 27 29 27 25 19 17 16 17 20 20 19 17
49 27 24 17 19 17 36 45 51 66 63 39 47 51 47 60 46 41 39 35 33 34 39 35 24 38 34 35 37 35 40 38 41 36 33 33 28 21 19 19 18 19 20 20 18
36 27 22 20 26 23 62 32 42 77 36 15 40 46 52 52 45 46 41 30 32 34 31 35 29 37 41 39 41 42 37 41 42 43 33 28 33 22 21 20 17 17 20 19 18
36 30 27 21 23 49 27 22 52 85 11 19 39 45 37 43 35 38 42 31 28 32 38 32 42 54 45 38 39 38 41 41 42 47 45 38 42 25 23 25 21 18 18 18 18
35 34 33 29 25 22 16 30 72 32 9 18 30 24 18 25 30 35 36 39 37 36 40 36 33 44 41 43 37 36 41 33 36 45 57 36 38 27 24 27 23 23 22 25 25
34 34 36 29 44 18 15 66 19 10 10 27 34 23 17 27 28 31 34 36 33 42 39 31 33 36 42 45 40 42 38 33 45 61 46 32 38 31 25 37 37 36 37 39 41
28 41 44 38 25 19 37 21 10 14 23 29 29 21 18 27 21 29 31 34 31 32 32 31 36 31 38 40 32 40 38 42 50 42 34 33 42 31 42 40 44 45 50 51 48
40 46 58 46 29 22 34 25 18 38 36 37 25 22 18 32 28 27 27 28 30 30 35 34 34 30 40 38 34 53 59 41 60 53 63 35 28 38 37 41 43 51 60 69 69
51 79 74 49 38 45 26 29 34 38 38 31 28 33 34 35 26 29 30 48 56 43 28 31 39 30 44 44 44 51 47 78 72 76 55 31 35 44 59 58 54 61 70 85 93
51 56 74 50 54 46 45 34 36 34 41 34 35 36 26 28 24 30 28 47 50 54 46 31 37 42 52 52 42 59 61 69 94 70 59 51 86 88 82 75 78 72 84 97 100
52 64 65 40 57 56 44 45 55 42 45 40 38 40 35 31 27 28 27 32 58 56 69 41 52 50 37 29 34 35 44 55 67 71 87 95 66 78 71 72 76 78 88 98 100
68 60 59 62 70 53 49 52 56 51 52 49 48 42 37 41 44 31 28 22 58 76 96 94 73 61 47 52 45 49 51 88 88 100 82 89 81 82 81 72 74 78 87 96 100
80 75 63 64 58 59 69 52 50 63 72 61 61 61 61 52 46 42 36 36 52 47 85 98 72 57 41 82 50 59 49 49 59 77 58 53 62 69 79 82 84 72 92 96 100
90 74 72 75 60 50 55 52 55 64 61 50 89 76 83 72 54 52 38 31 31 56 78 96 94 57 59 68 61 39 36 35 46 47 56 32 32 32 43 56 75 66 86 93 98
97 66 68 57 61 53 54 43 46 51 47 44 73 48 43 59 71 91 69 57 53 62 76 98 93 58 64 62 47 44 34 26 31 38 37 38 42 36 50 67 74 72 90 94 95
82 80 66 65 51 48 46 44 50 46 46 50 46 54 53 56 73 63 63 60 67 79 100 99 100 67 62 47 40 39 29 31 32 30 45 55 46 46 56 76 74 82 81 96 94

GFSSW_850_rhum_081.txt.gz
RH
11 12 12 10 8 6 5 4 4 4 3 3 2 2 2 2 2 6 35 26 25 6 5 37 37 28 23 20 24 21 21 20 15 12 10 9 9 8 8 8 7 10 12 12 26
14 12 10 8 7 6 5 5 5 5 4 4 3 3 3 3 2 22 25 16 11 6 5 26 29 27 24 19 18 18 20 17 11 10 10 10 10 10 9 10 11 9 9 11 26
13 11 9 8 8 6 5 4 4 4 3 4 3 3 3 3 36 16 14 15 16 8 36 18 21 18 20 17 16 16 20 13 10 10 11 12 12 11 10 11 10 12 12 11 15
16 13 10 9 8 6 5 5 4 3 3 3 3 3 4 13 15 31 10 15 18 22 42 25 17 15 16 15 14 18 16 15 13 13 13 14 14 11 11 11 11 12 12 11 12
16 12 12 10 8 6 6 5 4 3 3 3 4 4 20 43 28 22 14 23 29 30 35 27 21 17 15 12 11 12 12 13 14 12 13 14 14 13 12 12 12 13 14 13 12
29 13 11 9 7 6 5 5 4 4 3 4 4 10 48 34 24 24 20 30 33 36 29 26 21 19 16 16 14 12 12 13 13 12 13 14 14 14 13 12 13 13 13 13 13
36 15 10 7 6 5 5 4 4 4 4 6 8 22 61 32 29 26 30 23 20 24 28 25 27 24 21 20 18 18 19 15 13 13 14 15 17 16 14 15 14 14 14 14 14
39 20 11 7 6 5 4 4 4 4 10 15 22 76 44 34 31 32 30 28 25 23 22 22 23 28 24 20 18 18 18 19 12 12 14 17 21 13 12 12 14 15 15 15 14
44 29 11 7 6 5 4 4 4 13 23 28 70 75 35 33 40 39 36 27 24 28 24 23 23 25 22 24 26 20 21 16 14 12 15 16 21 14 14 15 13 13 14 15 14
50 27 13 7 5 5 4 6 20 30 59 86 80 70 46 28 36 41 36 36 28 28 27 25 21 22 21 24 30 15 17 17 17 14 19 22 19 15 15 15 16 16 15 15 13
53 35 20 9 5 6 9 51 67 64 55 26 22 32 24 20 24 25 30 30 30 25 25 22 24 24 22 21 22 19 19 19 16 14 16 18 17 15 13 13 14 17 17 16 16
57 38 15 7 12 18 41 36 45 49 29 28 34 37 39 42 33 25 21 29 26 27 21 22 27 18 15 16 19 22 24 25 18 16 23 24 22 17 15 14 13 13 15 17 17
49 27 16 13 19 59 47 40 35 60 45 24 36 39 38 44 32 28 24 26 21 27 25 29 22 25 24 23 24 23 25 24 25 22 21 22 23 19 15 17 16 14 13 14 17
36 22 21 20 42 43 47 53 61 71 46 22 34 37 36 40 36 33 31 22 22 26 23 24 20 22 21 28 24 29 21 26 32 31 28 18 30 19 14 14 14 14 15 14 17
31 21 22 33 67 39 52 51 76 90 29 14 30 34 18 29 26 32 31 24 24 24 27 25 24 31 32 27 24 30 26 35 34 32 28 24 26 19 15 18 16 15 15 15 16
27 24 25 60 70 61 42 29 88 58 18 19 21 20 12 17 20 26 30 30 24 27 23 26 20 24 28 26 31 24 34 35 29 28 40 28 24 19 17 23 22 19 19 16 17
29 24 30 52 59 24 18 71 43 17 7 20 23 17 13 9 13 20 22 29 29 36 32 27 26 24 32 32 30 34 39 36 26 39 42 22 28 21 19 28 29 30 28 32 31
24 28 42 71 37 20 70 38 20 10 12 19 18 16 11 8 15 12 17 17 15 21 24 23 25 22 24 34 31 30 35 37 44 38 45 36 33 34 30 28 31 34 40 44 50
30 61 81 34 21 53 46 29 20 25 24 25 16 12 10 12 25 17 16 14 13 18 30 24 21 21 26 28 28 35 41 27 40 36 40 28 20 26 35 35 35 40 48 57 65
70 70 65 23 21 72 28 28 21 24 24 21 21 13 22 17 24 17 19 22 29 32 26 24 29 23 28 29 30 33 36 65 51 62 49 28 27 75 60 53 55 60 63 75 88
68 50 66 24 54 34 46 24 23 24 28 26 21 23 22 20 17 17 16 19 36 40 39 39 29 24 22 34 31 40 47 48 57 58 60 55 78 71 70 68 69 62 70 88 98
58 56 59 46 43 32 31 28 33 29 34 30 30 29 29 26 28 26 23 15 22 39 62 60 73 38 24 20 20 24 36 43 68 49 52 60 66 68 65 67 68 66 78 92 100
41 43 51 79 69 38 34 33 36 34 35 34 34 31 31 36 39 26 24 19 18 23 80 85 67 56 38 29 24 29 28 33 55 68 65 72 76 74 62 59 67 68 78 94 100
53 69 47 41 39 46 46 39 40 46 45 43 41 44 44 41 32 39 35 24 24 31 58 67 67 69 51 49 60 67 32 39 53 70 56 54 37 67 54 60 65 69 82 96 99
66 63 52 63 44 39 44 38 40 47 45 36 67 60 46 50 41 40 40 43 38 21 32 65 71 52 48 33 41 62 82 41 50 46 47 33 26 24 34 50 64 70 85 95 100
78 48 47 42 44 42 46 36 31 36 35 36 54 38 34 41 36 52 52 50 48 37 58 75 72 57 70 54 45 54 56 30 26 23 25 26 28 35 52 59 61 73 83 94 100
83 75 53 48 38 37 36 35 38 35 34 34 34 39 40 38 38 40 41 42 42 50 55 77 78 76 69 58 51 66 44 31 22 24 26 43 46 50 68 66 69 81 89 96 100

GFSSW_850_rhum_084.txt.gz
RH
9 9 10 11 10 8 6 6 5 4 4 3 3 2 2 2 2 3 32 25 28 24 21 6 38 34 25 22 24 25 27 27 21 17 14 10 9 7 7 7 7 7 8 10 22
11 14 12 10 8 7 7 6 5 4 4 3 3 3 3 3 2 2 21 24 18 17 20 16 27 28 23 21 18 20 28 25 17 14 13 10 9 9 9 8 8 8 8 9 16
13 13 13 10 9 8 7 6 6 4 4 3 3 3 3 4 23 28 14 8 10 11 6 15 18 23 23 20 17 15 22 18 15 12 11 10 11 10 11 11 9 10 11 10 12
16 13 12 13 10 9 8 6 6 5 4 3 3 3 4 6 24 21 17 12 10 15 16 31 16 18 16 17 16 16 13 12 12 13 13 12 12 12 13 13 10 10 10 12 11
21 17 14 12 12 8 7 6 5 4 4 3 3 4 7 51 37 30 22 12 16 20 42 30 20 15 14 11 11 12 11 11 12 12 12 12 12 12 12 12 11 11 11 11 12
28 25 22 13 11 8 7 6 5 4 4 4 5 7 22 38 21 23 22 23 29 37 32 24 20 17 15 14 13 12 11 10 10 11 10 11 11 10 10 10 11 11 11 12 12
40 28 27 13 10 8 6 4 4 4 4 5 7 18 64 33 22 25 24 20 17 21 26 23 21 22 20 19 18 17 18 16 15 14 13 12 14 13 12 12 12 12 13 12 12
50 31 22 14 8 6 4 4 3 4 4 11 24 50 54 27 31 25 25 24 24 18 19 21 22 22 24 22 21 19 17 20 13 10 10 11 18 12 11 11 12 13 13 13 13
44 35 31 16 7 5 4 4 4 6 15 24 60 80 42 36 31 33 33 26 21 20 19 18 18 20 21 26 26 21 27 20 16 10 10 11 18 13 12 13 13 14 13 13 14
47 42 29 14 6 4 5 13 27 30 53 84 70 65 47 26 29 33 32 31 26 24 25 22 19 20 21 23 30 22 20 17 16 12 13 14 16 15 14 13 13 15 15 15 14
51 46 32 12 4 7 8 60 79 92 81 51 32 42 22 18 22 20 19 28 27 24 27 22 25 25 21 18 18 20 23 23 18 13 15 16 15 14 12 11 12 12 13 16 17
64 57 34 10 6 16 36 46 41 50 31 29 20 26 30 34 30 23 17 25 24 28 20 22 27 20 16 16 17 19 20 21 17 15 18 17 16 16 17 17 14 12 12 14 17
67 49 23 16 11 30 46 44 47 53 46 22 27 31 32 36 28 23 18 17 23 23 24 25 20 17 23 22 24 21 22 22 21 17 18 24 23 18 15 14 16 15 14 13 14
50 33 19 18 35 45 57 46 57 57 56 23 25 30 35 36 34 26 26 20 20 24 20 21 17 19 21 23 22 29 18 19 25 26 39 22 38 21 14 14 15 16 17 17 14
38 25 24 28 56 51 55 46 66 84 43 20 28 32 21 24 19 29 26 22 22 21 23 25 20 22 26 25 18 21 19 24 27 36 38 34 30 20 14 15 14 15 15 16 16
33 28 40 46 45 64 49 24 80 76 37 17 23 21 12 13 15 22 24 26 23 21 20 19 16 17 18 20 21 23 28 26 31 36 52 37 26 24 21 30 30 24 25 31 20
29 22 27 60 71 62 15 77 70 49 10 17 18 16 12 10 7 8 15 26 29 32 31 22 23 19 19 28 24 30 37 42 41 36 46 48 59 28 37 36 29 29 40 45 53
24 24 43 74 43 23 71 56 47 9 15 16 13 13 13 8 7 8 12 14 12 13 20 22 24 16 21 30 30 29 36 48 46 51 42 35 84 47 34 41 53 54 56 59 65
27 46 85 80 19 35 67 55 32 25 19 20 13 11 9 8 14 20 19 14 12 10 16 31 24 21 20 21 24 29 34 26 43 38 46 34 43 65 65 49 50 55 60 67 76
80 75 61 19 17 74 55 35 22 19 18 16 18 10 16 16 18 17 18 13 24 29 35 36 50 20 22 24 24 27 26 59 80 70 52 29 38 86 83 73 59 58 63 75 86
72 59 61 14 62 70 60 28 19 22 23 22 19 19 19 20 18 18 16 12 13 32 27 37 51 54 35 48 38 31 40 38 49 54 69 84 95 92 80 71 64 59 66 83 94
67 63 47 47 57 37 33 25 25 23 27 25 26 24 24 25 27 25 24 19 15 16 20 37 87 75 42 23 24 25 27 38 68 55 54 59 66 71 57 56 57 62 71 88 98
53 44 21 70 76 40 31 27 27 28 29 29 29 27 28 32 34 25 24 20 22 20 31 40 58 65 43 29 22 34 31 48 58 65 71 86 67 66 60 52 63 62 75 87 99
54 75 45 45 36 42 37 33 35 36 35 35 31 33 35 35 28 31 28 25 29 34 49 52 47 61 72 57 59 72 69 52 43 77 60 56 58 45 61 54 57 70 83 93 100
66 74 52 64 40 37 39 32 34 40 36 33 46 45 47 41 35 32 28 31 29 28 30 41 55 45 51 41 38 54 84 60 61 74 60 44 35 57 62 63 65 72 80 90 99
50 58 45 39 40 37 42 34 28 30 28 38 46 34 30 35 32 44 35 36 41 33 39 67 65 46 48 39 38 52 44 57 67 86 73 62 36 71 77 60 69 76 82 92 100
66 66 64 44 39 37 39 32 31 31 30 28 27 31 35 32 29 34 35 37 38 43 52 57 88 74 61 37 44 68 39 35 39 53 37 49 70 60 83 90 90 87 93 100 100

GFSSW_850_rhum_087.txt.gz
RH
14 11 10 10 10 9 8 6 6 6 6 6 5 3 3 3 3 3 3 4 10 19 23 23 10 37 26 25 30 31 46 49 42 32 25 16 16 12 11 8 7 7 7 11 22
15 12 11 12 11 9 8 7 7 6 5 4 4 3 3 3 3 3 11 18 26 27 25 24 15 34 31 24 24 26 40 40 28 25 24 18 15 14 13 13 12 9 7 17 21
17 14 13 13 11 9 8 8 7 7 6 5 4 3 3 4 8 24 19 7 7 8 11 18 12 18 29 24 22 22 26 22 24 23 20 18 14 14 15 17 14 14 12 9 17
20 16 15 13 11 10 9 8 8 7 6 5 4 4 4 6 30 25 21 20 18 9 11 18 22 18 22 30 24 27 20 18 16 16 16 15 14 15 14 14 12 12 12 11 12
21 19 17 15 11 11 9 9 8 7 6 5 5 5 8 39 25 11 27 22 10 12 17 31 32 24 20 18 16 18 16 14 14 13 13 14 14 14 14 12 11 11 11 12 12
24 25 19 15 13 11 10 10 8 6 5 5 6 9 19 65 16 22 22 20 16 34 33 36 33 24 17 16 17 14 16 16 16 16 16 16 16 14 13 12 11 10 10 10 11
33 35 23 17 13 12 11 9 6 4 4 5 8 21 33 10 16 27 29 24 19 21 25 29 26 24 22 28 22 21 25 21 19 17 17 14 18 17 13 12 12 12 12 12 12
52 47 34 20 14 13 10 6 4 4 4 8 24 49 38 7 30 22 23 25 23 22 17 18 19 20 22 22 25 31 28 31 20 16 14 15 21 14 12 12 12 12 12 12 12
68 62 37 22 15 12 6 5 5 7 10 21 36 56 72 40 34 29 32 26 23 23 21 19 18 18 21 29 40 34 42 33 26 18 16 16 19 16 12 14 15 14 14 14 14
82 65 45 26 17 8 5 7 29 43 50 54 84 90 57 28 28 33 32 31 29 24 21 19 20 27 29 34 50 41 34 30 30 22 19 20 20 16 13 13 13 12 12 12 12
80 64 60 42 16 7 6 28 65 86 95 72 61 47 32 24 18 21 20 24 29 26 35 26 35 39 31 29 27 27 26 28 25 21 20 20 20 18 14 13 13 13 13 12 11
91 75 58 30 11 15 41 59 43 49 48 37 41 48 26 21 32 27 22 19 28 38 30 32 39 28 24 23 25 26 28 28 23 19 20 21 22 21 20 19 16 16 16 14 13
88 77 46 21 13 36 48 45 45 26 56 35 21 39 26 33 33 23 18 18 26 32 33 39 30 23 24 25 27 29 31 29 26 23 21 24 26 28 22 20 17 14 14 16 14
89 54 34 23 33 51 61 48 28 26 73 38 21 28 33 34 35 30 26 20 21 29 29 31 25 24 24 29 27 34 26 26 24 30 48 33 57 35 27 22 16 28 21 15 16
62 42 26 31 67 60 59 52 30 71 65 24 24 29 29 33 23 29 25 23 28 28 25 34 28 27 28 27 24 30 25 28 31 37 45 40 50 38 29 25 18 62 54 26 18
50 29 36 42 57 72 54 23 75 92 64 27 30 27 24 19 17 28 26 24 24 28 25 26 19 21 24 21 22 25 34 39 40 42 57 42 55 55 41 32 50 67 67 72 69
39 32 68 72 82 75 43 77 96 77 17 21 26 17 14 14 15 12 28 35 39 44 44 32 27 22 18 26 25 30 43 72 61 62 60 38 49 61 79 73 65 67 70 78 79
38 26 40 82 80 54 68 78 73 27 21 15 14 15 16 13 12 12 16 20 18 22 22 24 30 20 22 26 36 40 46 73 73 70 59 37 52 69 87 68 60 68 71 79 88
33 40 72 72 26 56 78 83 48 28 20 19 14 15 14 12 15 19 24 25 23 45 64 59 44 32 24 27 31 40 46 38 54 51 62 43 33 67 70 75 72 60 68 82 90
86 81 73 57 21 70 80 57 31 19 18 16 17 14 20 23 23 22 21 17 18 28 24 43 68 40 33 31 30 33 34 69 85 91 81 46 76 98 84 69 72 72 73 88 95
78 74 65 18 58 78 89 44 22 23 24 25 25 23 24 24 25 26 22 21 23 24 23 30 66 63 45 44 45 42 46 47 59 74 87 86 87 88 86 76 76 74 79 91 98
71 90 48 48 84 80 61 30 22 24 25 26 27 25 26 32 32 30 28 26 33 34 40 49 69 68 52 37 32 43 50 55 70 68 73 78 90 77 76 75 64 74 81 92 98
71 50 31 62 94 77 32 30 27 27 31 29 29 34 36 36 39 32 34 27 31 39 61 55 69 86 48 38 50 69 73 79 89 82 96 90 80 78 75 67 72 82 90 96 99
73 90 42 49 39 58 45 40 38 35 41 34 33 37 40 42 35 40 35 30 28 33 45 45 63 72 81 64 51 88 72 57 86 99 97 90 65 61 66 82 80 86 92 97 100
66 83 60 87 64 53 46 35 45 45 37 37 49 45 50 55 45 44 44 41 35 32 41 58 75 61 53 44 42 44 70 52 72 86 98 86 77 89 83 83 84 81 88 96 100
70 80 50 49 41 49 48 38 31 33 29 50 49 42 38 47 45 55 52 54 53 46 54 72 83 80 69 56 54 44 38 39 49 72 79 84 97 84 85 82 80 84 92 100 100
61 60 64 46 46 53 50 37 34 36 32 27 32 41 46 46 45 44 43 45 49 54 59 63 89 85 68 56 61 68 52 46 54 62 69 88 95 80 93 94 96 98 100 100 100

GFSSW_850_rhum_090.txt.gz
RH
56 47 35 30 18 16 12 8 7 7 8 8 7 6 4 3 3 3 3 5 5 12 25 27 23 17 41 16 26 35 56 65 54 46 38 28 25 21 17 13 13 13 13 12 23
57 55 43 33 22 15 12 9 8 8 8 8 8 6 4 3 3 3 12 18 16 21 22 23 22 20 43 27 23 32 50 51 40 36 33 27 26 24 18 16 14 13 13 34 45
60 56 50 39 23 17 12 9 8 8 9 9 7 5 4 4 7 12 12 4 12 13 11 19 24 19 31 33 24 28 36 29 24 22 22 26 25 23 20 19 14 14 12 12 23
61 58 48 39 26 17 12 9 8 9 9 8 6 5 6 6 17 27 23 22 22 12 13 9 20 21 20 36 29 30 23 22 20 19 20 19 17 18 17 16 14 13 13 12 11
67 63 47 30 24 24 12 10 9 9 10 8 6 6 9 18 11 6 6 22 21 10 16 19 33 32 28 20 20 28 26 24 22 20 19 18 18 18 16 14 12 12 11 11 11
74 65 45 29 30 22 14 12 10 11 9 6 7 11 26 60 12 22 25 23 20 27 27 28 34 32 29 21 21 16 16 18 19 18 19 20 20 17 16 14 13 12 12 12 12
80 66 57 41 41 25 15 12 12 10 7 5 8 36 49 9 10 26 27 28 25 20 25 28 29 29 22 28 24 26 31 29 23 19 19 16 18 18 12 10 12 11 11 11 11
93 87 71 53 41 22 16 14 11 7 6 8 20 86 57 4 18 21 22 25 26 26 19 18 18 19 20 23 24 31 32 39 24 20 19 18 26 17 13 13 13 13 13 12 12
100 99 74 71 52 31 25 18 7 6 16 28 61 82 77 25 38 26 24 24 21 24 23 21 18 19 20 30 38 39 50 41 32 21 23 22 27 19 14 14 15 14 14 13 12
100 99 87 78 58 40 24 10 9 21 49 75 69 97 42 26 29 32 33 32 30 29 25 24 20 26 33 37 47 48 45 40 38 26 22 26 25 20 16 16 16 15 14 13 13
99 99 89 82 68 63 54 46 35 70 84 60 45 50 42 30 19 20 29 32 30 29 32 27 36 42 33 34 31 33 36 37 29 23 24 24 24 20 18 18 19 18 18 16 15
100 94 87 78 76 67 33 49 49 49 52 56 40 69 40 39 29 16 21 20 23 40 32 37 43 32 28 28 31 32 36 35 28 24 23 23 23 20 20 20 18 18 21 19 17
97 98 92 75 58 24 36 54 50 44 48 27 20 59 59 27 33 30 24 23 31 40 39 45 36 28 30 31 34 34 36 36 34 29 26 28 31 29 26 26 23 22 28 53 55
98 98 91 58 25 40 64 53 44 28 57 34 33 27 34 32 37 30 20 19 23 28 31 37 28 31 32 34 29 36 30 31 34 36 42 35 55 34 32 28 25 24 72 72 72
99 90 60 29 72 61 62 58 40 63 67 30 22 26 35 34 31 30 26 24 30 30 28 37 29 29 30 30 26 31 29 33 34 43 48 39 54 34 44 83 80 72 78 83 67
84 53 31 38 59 72 65 55 50 97 67 32 31 33 38 35 22 28 26 25 24 29 29 30 23 24 27 23 24 25 32 41 42 51 64 42 50 57 87 89 72 73 80 91 72
88 42 40 82 84 82 68 77 98 98 25 34 38 31 32 25 24 32 33 34 38 44 43 34 32 26 23 28 24 28 48 70 75 69 72 38 51 53 80 74 70 72 86 94 91
43 28 43 74 88 82 59 88 99 27 26 17 16 16 19 14 12 12 23 29 45 45 40 36 40 26 34 31 32 41 47 73 82 70 47 41 60 76 74 68 69 88 88 83 83
30 27 36 61 64 66 86 98 51 31 20 20 16 16 18 18 19 24 24 25 30 30 60 57 60 36 38 38 31 42 55 40 61 54 73 56 72 72 65 66 75 88 88 91 95
33 81 88 76 52 81 91 72 28 22 20 18 21 23 28 25 26 24 24 23 27 26 24 39 50 51 42 36 36 40 43 55 82 81 84 59 53 78 75 72 68 81 89 93 98
86 89 79 45 77 94 86 48 28 25 23 28 28 30 28 30 30 30 29 34 28 31 33 44 60 52 36 47 49 48 58 71 67 79 83 87 80 83 80 76 78 77 88 98 100
85 94 66 76 92 91 63 35 24 26 27 28 29 34 40 38 37 34 35 41 36 40 52 56 65 78 48 37 34 37 67 88 99 90 81 80 68 71 75 71 76 84 89 98 100
72 47 33 71 89 74 36 36 36 32 35 34 36 39 39 41 43 38 36 33 33 38 50 45 63 77 38 38 55 63 53 59 81 95 98 95 78 70 77 78 81 85 94 98 100
79 83 46 56 53 61 51 41 43 38 41 37 47 49 47 46 41 44 46 42 38 42 45 48 64 62 73 60 58 62 46 42 68 97 94 84 92 77 86 91 87 89 94 99 100
71 83 60 84 67 55 48 45 52 52 42 40 48 52 52 59 51 50 52 52 45 43 49 59 73 65 66 61 57 59 58 47 48 59 94 83 93 95 90 88 85 87 92 98 100
67 71 54 50 45 52 56 40 43 37 44 50 49 43 42 48 49 60 59 56 60 47 54 69 76 65 52 51 53 60 60 51 44 41 49 61 84 94 98 89 90 94 97 100 100
66 63 59 56 49 60 47 41 42 39 36 37 40 43 45 53 44 41 41 45 52 57 63 67 79 89 65 58 64 70 68 53 41 53 72 84 94 95 98 95 98 99 100 100 100

GFSSW_850_rhum_093.txt.gz
RH
64 62 61 60 57 54 48 35 24 12 9 8 9 10 10 10 9 7 6 5 5 5 10 10 18 26 34 24 34 41 61 77 49 44 41 28 32 28 27 23 19 18 14 13 43
74 68 65 63 59 56 49 35 24 14 9 8 9 11 10 9 9 10 14 12 20 10 15 25 29 30 31 41 19 36 65 53 45 37 40 36 34 30 26 25 24 20 14 13 13
89 83 71 65 62 55 48 36 23 13 9 9 10 10 8 8 8 10 9 14 18 16 16 26 28 27 25 34 26 31 46 36 31 30 27 26 25 25 24 25 20 17 15 14 13
99 97 89 71 62 50 44 36 24 12 9 9 10 10 8 7 16 26 19 17 12 17 13 22 29 21 20 40 35 35 28 25 24 22 22 24 21 21 20 19 17 16 15 14 13
100 99 99 85 69 59 40 35 32 13 10 10 10 8 7 9 9 11 10 10 19 20 13 16 30 25 27 23 25 31 27 24 23 24 24 21 23 21 19 16 15 14 14 13 12
100 99 99 97 76 59 44 40 32 13 11 11 9 7 13 39 13 19 17 11 24 21 20 22 34 34 34 31 24 19 19 20 21 22 21 22 22 20 17 15 13 13 12 11 10
100 100 100 97 90 64 50 64 26 13 13 9 7 11 55 14 11 13 24 26 24 22 27 35 34 24 25 26 25 27 34 32 29 24 21 19 23 22 15 16 15 13 13 13 13
100 100 100 94 88 88 59 46 22 16 10 10 13 40 85 9 6 8 16 26 27 28 26 21 18 20 22 22 25 30 33 40 29 26 22 20 27 21 16 16 16 14 14 13 13
100 100 100 100 95 87 75 52 26 17 10 22 40 84 75 16 19 15 19 15 21 26 24 25 25 20 21 32 38 39 46 42 36 26 24 24 30 22 17 17 17 15 15 14 14
100 100 99 99 94 89 83 60 27 22 43 64 82 77 37 23 33 33 26 25 29 24 26 26 24 27 35 37 52 45 43 43 42 29 26 28 28 22 18 18 19 18 16 16 15
100 99 95 94 96 93 88 72 66 66 86 56 56 38 24 28 28 21 33 32 32 31 36 26 33 39 31 33 31 34 39 42 35 29 29 30 28 24 20 20 21 19 19 19 21
100 100 93 98 89 92 86 71 57 58 61 54 44 62 28 38 61 21 23 31 27 42 35 40 43 31 32 31 33 35 39 39 33 28 31 33 30 25 23 24 21 24 44 78 74
100 100 98 92 87 89 81 66 48 50 47 33 31 67 49 47 63 34 24 22 28 34 43 48 38 33 34 36 38 38 40 38 39 32 31 31 33 28 25 32 67 71 73 71 85
100 100 97 87 89 72 41 41 54 46 33 30 40 36 48 42 42 23 28 23 26 33 40 44 32 35 39 39 37 46 33 34 38 39 47 32 52 34 30 77 71 71 72 73 64
100 100 99 100 57 53 62 59 57 42 48 26 37 23 35 35 33 32 28 21 27 29 34 36 31 38 40 38 34 39 34 35 35 42 53 46 56 37 61 76 75 64 66 83 86
100 100 99 90 54 78 63 58 47 93 58 35 33 38 41 36 30 31 25 24 24 29 29 33 24 25 28 25 27 25 33 40 47 54 67 40 53 56 90 88 76 64 79 90 89
100 95 62 36 59 75 66 49 89 88 27 45 44 41 43 42 39 32 34 38 45 48 48 35 33 27 25 30 28 29 40 59 61 72 70 45 54 53 85 74 72 71 90 91 90
100 84 35 72 88 79 67 92 100 35 27 20 30 37 46 18 21 23 38 49 27 46 46 45 42 38 39 40 41 39 43 62 68 77 50 40 63 54 74 70 74 90 90 76 87
73 67 31 77 90 78 80 98 60 35 22 24 19 27 27 21 20 24 27 32 31 28 52 48 56 33 40 30 39 40 51 39 50 54 69 58 56 74 73 64 71 84 90 93 95
36 49 46 72 80 74 96 84 38 32 31 32 29 28 29 28 26 26 30 32 31 28 29 38 40 45 32 36 40 39 48 71 90 92 86 64 59 69 69 68 71 89 92 96 94
64 79 98 98 64 97 97 77 32 31 30 34 31 30 32 32 33 32 39 42 33 33 46 49 50 47 26 46 46 43 48 71 82 83 91 86 79 74 69 75 86 85 95 99 98
80 96 86 66 98 94 91 46 32 33 34 33 39 42 41 39 39 39 44 43 38 39 48 48 65 76 43 38 39 42 78 82 97 93 86 95 85 82 86 80 80 86 92 100 99
77 70 78 86 98 85 43 45 46 39 44 40 41 42 40 45 50 41 44 46 38 46 45 41 61 65 32 42 47 54 48 47 60 84 92 94 78 69 78 80 86 92 98 100 100
81 86 63 70 75 64 51 46 47 39 44 44 51 47 46 51 45 45 51 49 40 51 53 48 61 56 67 50 59 68 59 55 62 95 90 84 74 70 82 94 92 90 95 100 100
76 80 59 87 71 56 50 48 51 51 42 44 53 57 54 60 50 58 57 55 45 45 59 60 68 67 65 65 55 56 57 54 62 58 73 58 67 57 97 96 100 90 92 98 100
70 72 56 57 48 52 56 50 51 45 50 51 56 50 48 56 51 57 56 53 54 49 55 71 76 63 62 45 44 58 57 55 56 54 52 45 48 95 98 100 99 96 95 100 100
65 65 55 63 55 53 50 47 46 46 42 39 42 45 54 56 47 42 42 43 46 59 64 67 80 81 64 56 66 67 67 90 56 46 56 62 64 97 99 94 97 99 100 100 99

GFSSW_850_rhum_099.txt.gz
RH
94 96 98 93 88 82 78 74 67 61 60 58 53 50 33 26 26 18 25 23 19 13 8 10 19 20 24 34 34 38 29 27 24 30 20 30 30 30 31 28 28 25 25 16 14
99 94 94 96 97 95 89 84 76 68 57 57 50 44 33 22 22 33 20 15 17 16 9 15 26 33 31 27 34 38 38 26 32 27 26 26 34 30 27 27 26 23 17 14 15
100 98 100 97 98 99 99 96 92 80 65 62 50 44 24 15 22 25 12 15 17 15 17 18 26 28 31 38 26 33 27 38 36 35 35 32 30 30 28 27 24 22 18 16 15
100 100 100 99 100 99 100 98 99 96 80 58 52 49 25 12 37 20 19 17 11 16 20 26 32 29 27 31 33 25 31 27 27 26 26 28 26 23 24 23 22 17 17 17 15
44 63 94 96 100 100 100 100 99 100 87 64 48 45 23 14 19 26 19 20 21 19 14 19 25 24 20 22 30 34 30 31 29 28 28 27 26 25 23 17 18 18 16 15 15
38 43 54 99 96 100 100 100 99 97 93 72 52 45 26 27 37 26 21 18 14 14 14 17 15 17 22 25 25 26 29 26 24 24 23 23 23 25 22 20 19 18 16 15 15
35 44 68 88 100 100 100 100 100 93 92 79 68 28 58 41 35 25 20 13 18 16 18 21 21 36 35 30 30 28 30 28 28 27 27 28 26 25 21 20 18 18 16 17 17
31 40 99 100 100 100 100 100 99 97 100 94 63 43 94 43 36 33 25 21 18 18 27 32 29 35 29 22 26 27 32 34 28 27 25 23 29 17 20 20 20 18 18 18 17
32 50 88 94 97 96 100 99 100 98 100 92 67 61 79 51 41 33 27 20 25 31 33 32 34 31 26 25 30 36 30 39 31 26 26 24 28 19 18 21 22 22 21 21 24
38 98 99 98 97 99 100 100 100 99 90 84 69 97 68 48 37 44 37 21 20 38 40 35 30 28 28 28 33 33 38 38 34 24 27 25 25 22 22 23 24 23 27 44 50
45 98 100 99 99 98 100 100 98 96 99 77 79 70 48 42 44 38 43 31 25 28 37 33 36 39 30 29 28 34 36 35 31 26 26 27 27 25 23 25 24 29 67 68 67
92 98 96 100 99 99 100 99 89 88 93 81 75 78 63 52 43 39 41 45 40 29 27 34 40 31 28 29 29 30 33 30 28 27 30 29 30 25 24 24 29 61 63 71 78
94 95 99 99 100 100 100 98 94 89 81 73 69 73 78 73 77 49 47 42 36 43 39 35 33 30 30 30 32 33 33 37 35 31 30 32 30 27 24 50 70 67 69 82 82
91 98 99 100 100 100 100 99 88 88 89 62 62 57 64 66 74 71 44 40 34 46 41 42 32 34 33 35 33 40 34 34 36 39 38 31 35 29 32 40 58 58 74 77 75
100 100 100 100 98 100 91 94 86 69 90 36 39 42 55 58 40 61 56 32 55 39 46 49 41 42 44 37 36 38 35 37 38 42 43 39 38 34 41 50 49 59 74 78 80
99 99 100 99 96 98 95 99 85 91 92 34 45 59 64 54 42 44 56 38 31 34 39 36 31 35 36 34 34 31 37 41 46 47 50 36 34 31 30 44 52 60 80 82 84
100 100 99 98 98 100 99 98 89 90 40 41 47 65 59 57 42 39 36 36 36 40 41 35 32 26 28 30 33 32 36 39 46 55 41 39 43 28 30 52 61 75 79 85 88
96 97 100 98 100 100 100 98 91 46 29 25 28 50 52 42 38 36 39 38 27 41 41 40 46 40 31 37 36 37 33 35 46 49 43 44 46 36 51 73 85 82 86 88 89
92 92 99 100 100 100 98 92 74 60 41 42 61 57 30 28 28 32 37 32 30 31 44 50 54 42 31 30 38 44 43 45 47 52 48 36 38 46 64 86 78 81 85 92 92
73 55 88 99 99 100 97 81 60 38 40 44 79 96 48 33 31 33 39 36 34 42 34 38 41 44 32 35 24 41 45 67 69 55 45 44 48 50 83 90 78 78 85 90 92
86 66 81 99 100 99 90 75 54 40 39 51 63 85 46 38 41 48 46 46 51 49 43 46 36 38 32 36 34 23 36 72 66 73 69 56 57 77 81 82 79 80 85 90 91
83 93 89 100 98 99 88 53 44 44 46 50 73 63 50 45 44 60 51 51 59 47 47 51 48 37 43 43 40 50 70 68 54 67 80 83 67 72 80 78 78 81 86 93 95
97 99 84 93 94 84 67 46 49 47 54 71 65 58 47 48 49 49 47 49 52 48 46 42 43 32 40 46 40 48 49 49 52 64 65 73 56 77 81 77 87 94 97 96 99
69 96 100 96 98 89 69 56 54 48 55 55 65 59 48 48 50 54 49 45 51 61 58 46 50 33 28 47 51 52 54 51 58 78 59 50 35 26 28 49 71 89 97 96 99
91 79 66 93 84 81 65 54 52 52 49 48 54 54 52 49 52 56 48 46 47 54 58 54 54 54 48 58 56 54 48 44 44 40 51 22 32 32 31 42 86 92 91 91 96
84 86 69 72 59 76 70 59 47 50 46 52 56 47 45 50 50 54 50 46 44 50 54 60 74 60 60 52 53 52 43 40 38 42 49 54 63 47 48 89 93 97 100 98 99
76 72 66 65 65 62 60 56 49 46 42 45 48 49 50 51 45 45 42 47 48 49 58 56 67 58 45 51 44 42 45 42 59 65 70 84 66 59 90 87 92 97 99 99 100

GFSSW_850_rhum_102.txt.gz
RH
89 96 94 92 93 93 98 96 90 84 81 79 78 72 64 58 57 46 43 36 22 19 11 9 16 28 30 23 25 20 16 16 14 15 14 13 15 16 23 21 19 21 20 20 18
81 91 99 100 100 96 95 99 100 94 88 78 78 78 75 64 59 54 38 19 13 15 18 24 25 25 20 21 23 19 16 15 11 12 13 12 16 14 17 14 16 18 17 17 17
57 71 92 91 92 98 100 100 98 98 95 87 76 76 76 70 53 27 20 14 15 14 25 25 25 24 19 22 19 17 20 15 16 18 14 13 14 15 14 16 16 17 17 17 17
39 38 49 82 93 100 100 100 100 100 100 98 94 92 79 60 58 25 19 16 12 16 28 27 26 22 19 20 17 17 16 15 14 14 18 15 15 14 14 14 14 15 16 17 17
31 30 31 40 46 87 100 100 100 100 100 99 93 93 84 48 44 42 33 21 22 18 28 26 21 18 16 13 14 20 13 13 14 15 15 14 14 15 15 16 16 16 18 17 16
25 24 26 33 39 70 88 100 99 99 99 99 90 94 71 66 59 57 39 22 25 27 28 24 20 17 14 12 13 14 17 16 19 19 18 19 15 16 17 16 17 17 17 16 16
22 22 26 30 34 98 94 100 95 100 94 100 97 91 93 71 64 60 48 24 39 35 28 23 20 19 16 17 16 19 20 16 17 17 15 18 18 17 18 17 17 16 16 16 17
22 21 26 33 59 96 97 99 98 100 93 100 97 93 88 68 61 57 48 34 25 40 33 25 27 25 25 20 21 21 20 23 16 16 17 20 20 16 15 16 14 15 16 18 18
25 21 24 34 90 93 99 98 97 99 100 100 92 88 80 62 56 52 51 43 34 44 37 39 33 28 29 27 23 22 23 22 19 19 18 20 19 14 16 16 16 16 16 18 23
23 25 41 48 99 94 99 96 100 100 100 93 92 99 78 60 48 37 40 43 33 28 41 41 35 29 27 24 32 25 24 21 22 17 19 19 18 15 12 14 18 17 18 24 34
33 47 90 91 98 100 97 100 99 100 100 83 74 64 56 48 42 45 45 46 30 28 36 33 37 32 26 23 22 22 21 22 19 17 22 19 15 13 15 17 18 17 25 34 43
75 99 96 91 99 95 100 100 93 86 77 82 79 75 72 67 50 43 48 36 25 26 29 36 45 29 22 21 24 25 25 23 18 16 16 18 19 17 16 16 16 19 35 44 47
100 99 95 99 98 100 98 100 98 92 86 66 66 71 66 69 63 48 45 36 31 32 25 50 39 25 23 28 31 27 24 22 19 20 22 24 23 18 17 18 30 36 45 51 52
92 93 99 100 100 99 100 99 99 95 99 49 57 58 64 67 61 58 48 41 47 59 48 58 40 40 32 31 26 28 19 19 23 29 27 22 21 18 16 24 31 39 47 51 56
92 97 100 93 97 100 97 99 98 79 90 33 40 44 50 58 41 46 54 42 47 46 53 56 44 52 57 31 23 26 22 29 26 30 29 25 28 15 17 24 31 37 51 57 62
99 99 99 100 100 98 100 98 85 95 92 42 30 39 46 49 42 39 56 47 51 87 89 66 57 60 56 50 42 27 32 30 30 30 39 25 24 16 21 21 29 43 56 64 66
100 100 100 100 97 100 97 97 97 94 40 41 39 44 40 37 41 39 64 61 77 94 86 61 55 31 31 36 35 39 36 49 50 46 36 19 22 16 21 31 36 51 60 66 68
100 99 100 98 98 97 98 98 95 69 41 23 25 30 47 33 36 36 61 72 54 40 41 51 55 29 25 28 31 39 32 45 52 35 26 29 29 37 50 55 62 64 66 68 67
96 97 100 100 100 100 98 93 83 56 42 38 34 50 42 32 27 30 38 44 33 31 40 40 42 31 27 27 29 30 36 23 33 32 34 24 28 54 64 65 62 61 63 65 66
98 100 100 100 100 100 98 76 57 36 32 34 50 80 56 31 33 34 34 29 32 32 30 37 47 34 26 26 24 34 27 48 42 46 40 22 22 28 63 60 48 50 58 65 68
76 74 100 100 100 99 85 57 48 40 34 45 51 67 66 40 33 61 38 38 38 40 35 37 34 37 28 32 28 28 38 50 46 44 44 38 34 57 56 50 50 48 61 70 73
90 81 99 99 100 98 69 49 46 42 40 44 56 57 68 49 65 60 51 43 54 47 45 36 32 31 33 36 28 25 36 35 42 37 43 57 41 50 53 53 53 51 65 74 80
95 95 100 99 93 74 55 47 45 44 42 53 56 61 42 54 46 67 72 69 60 51 44 32 33 44 36 37 35 36 41 40 43 41 42 44 35 57 60 45 49 62 65 73 81
76 90 99 99 98 68 61 54 52 42 42 45 51 62 53 49 38 47 50 46 52 48 55 34 28 25 25 37 37 47 42 35 44 57 36 31 22 38 28 18 25 52 70 72 79
76 73 56 88 82 68 55 47 51 49 46 42 52 70 88 54 45 47 41 47 44 49 43 37 32 32 35 36 34 35 35 31 31 26 35 18 18 18 29 42 44 68 72 79 92
97 57 60 45 53 63 63 49 45 46 44 45 56 43 50 64 46 46 40 37 37 40 41 43 53 42 35 33 34 36 27 26 27 25 23 23 29 38 48 63 77 80 82 85 92
92 81 54 54 48 63 53 44 42 39 46 52 42 41 41 42 39 39 38 37 37 37 42 39 54 43 25 33 32 30 31 26 24 25 41 54 52 52 59 85 79 85 90 93 98

GFSSW_850_rhum_105.txt.gz
RH
94 91 92 88 94 94 91 89 90 86 88 83 82 77 74 74 73 66 47 41 38 28 20 26 27 24 20 18 16 18 15 17 15 13 11 10 11 11 12 16 14 16 16 16 18
77 78 92 78 96 100 100 99 99 98 92 89 88 88 83 84 77 58 41 37 21 14 15 22 20 20 19 18 18 17 18 16 12 11 11 10 10 12 12 13 14 13 14 16 16
52 53 47 52 59 89 100 100 100 96 99 98 94 95 92 90 65 34 28 17 12 12 26 22 20 20 17 16 17 17 20 14 12 12 13 12 11 10 10 13 12 13 14 15 15
37 33 32 32 34 48 87 100 100 100 97 95 97 95 94 87 61 38 45 28 18 13 26 23 21 21 18 17 17 18 15 13 13 13 12 13 14 12 12 12 12 12 13 13 14
30 31 30 28 30 38 50 68 86 98 100 98 98 96 90 67 58 55 51 46 35 23 28 27 25 23 22 18 15 16 14 14 11 11 12 11 10 10 10 11 12 12 13 14 15
17 20 21 23 26 33 45 88 87 86 100 100 98 98 89 72 58 52 44 50 40 39 34 29 26 24 21 18 16 14 12 13 14 12 13 12 12 12 12 13 12 12 13 14 14
14 15 18 20 25 36 89 71 99 94 96 92 94 98 89 75 61 50 45 39 44 40 38 34 27 24 20 20 19 17 17 14 13 14 15 14 15 15 13 12 13 13 15 14 14
12 13 15 18 20 34 98 75 99 93 98 100 98 99 88 67 60 57 52 39 36 36 36 32 28 24 23 22 20 21 20 23 17 14 13 15 21 12 12 13 14 13 13 14 15
11 12 14 20 25 37 98 99 100 92 100 96 96 96 65 60 61 54 52 48 42 37 38 37 27 30 26 30 31 28 31 25 20 14 15 15 20 13 13 14 13 12 13 14 15
13 15 16 24 40 77 99 99 100 100 100 98 96 93 65 53 46 42 42 47 44 36 35 39 32 33 29 32 52 39 34 25 24 16 16 17 19 14 12 13 12 13 13 14 16
18 18 30 46 93 99 99 100 100 99 99 72 55 51 47 41 45 42 43 45 38 29 29 30 37 41 34 32 29 30 31 32 19 14 17 18 16 13 12 12 11 13 15 15 21
41 55 60 96 99 95 100 100 90 82 72 73 69 58 52 51 52 46 37 41 34 35 26 34 52 33 28 29 34 35 32 33 27 19 17 18 16 12 10 10 12 13 14 20 30
61 79 97 96 99 100 98 100 93 88 88 61 49 50 50 49 50 47 41 40 35 33 30 32 35 32 36 44 65 58 47 33 42 35 19 18 17 15 13 12 13 14 18 30 34
73 85 98 100 100 100 100 99 97 91 98 45 38 40 43 48 46 45 45 40 36 37 32 34 28 36 44 54 57 76 43 32 38 32 29 16 29 17 14 15 15 21 30 33 40
89 88 97 98 97 100 97 99 97 91 95 19 26 40 40 47 31 28 37 43 42 40 54 48 43 44 45 49 39 63 40 45 41 30 26 25 27 18 13 17 21 25 31 41 47
92 91 97 100 100 99 99 98 96 96 78 31 26 30 35 42 37 28 36 41 46 62 82 70 69 54 39 35 47 59 63 42 37 32 46 42 30 22 19 15 20 27 38 48 50
100 99 100 100 98 97 99 97 97 96 40 39 30 28 32 33 34 30 37 55 59 94 85 68 63 63 48 61 51 65 87 81 77 70 61 25 28 28 19 14 21 36 43 51 52
100 100 100 100 100 100 98 98 98 47 47 27 27 26 37 31 30 29 35 56 44 52 67 87 84 60 50 54 64 59 70 63 75 66 50 30 39 50 36 38 45 47 50 52 50
100 99 98 99 100 100 96 98 78 71 40 38 30 36 35 30 30 29 32 50 46 45 62 53 44 26 27 28 31 63 57 36 46 42 44 52 49 56 50 51 45 47 48 48 49
95 100 100 100 100 100 100 84 52 37 32 30 45 58 45 36 34 27 28 32 43 45 33 49 59 28 25 23 25 33 36 47 50 68 46 34 40 50 65 51 42 40 43 44 46
100 99 100 100 100 100 89 58 42 33 29 35 39 56 46 44 30 29 35 30 37 29 29 38 40 44 28 30 36 30 62 53 58 53 54 48 60 63 59 44 42 40 43 45 49
94 99 100 100 100 98 72 51 42 36 34 35 39 44 46 46 36 54 41 34 38 28 38 38 44 50 33 31 26 26 27 41 75 53 65 44 54 51 43 42 35 35 40 45 54
100 98 100 100 98 91 55 47 39 40 37 44 47 42 38 51 53 84 45 52 50 39 38 35 46 43 37 32 26 26 24 28 32 37 36 45 48 44 42 33 24 19 41 46 56
93 98 99 100 98 74 60 55 47 37 37 41 61 45 47 50 41 63 69 58 46 39 54 40 34 36 42 37 29 36 28 26 32 51 32 26 18 38 18 19 29 42 51 52 64
99 80 68 97 96 61 58 50 49 47 36 37 59 55 57 61 51 52 47 49 43 49 36 36 43 30 24 25 24 28 28 27 27 26 30 19 16 14 34 40 52 54 59 63 74
98 64 52 49 50 58 68 63 44 41 37 46 51 49 57 67 49 44 40 39 37 36 33 34 36 35 30 25 24 24 19 18 19 18 19 17 17 41 43 48 69 72 72 73 81
93 81 56 54 51 65 69 46 42 44 41 45 47 43 59 60 37 32 31 32 32 36 38 38 46 36 24 26 23 22 24 20 18 14 22 31 46 45 62 82 90 87 82 86 90

GFSSW_850_rhum_108.txt.gz
RH
83 91 90 90 88 88 94 100 99 99 95 91 86 83 80 77 67 57 62 51 43 41 35 17 25 26 26 21 18 17 19 21 18 15 13 10 9 10 11 11 13 13 14 15 16
74 69 69 71 74 70 72 96 98 100 100 93 89 92 88 86 73 52 51 45 36 17 17 20 23 20 20 19 18 17 20 20 15 13 13 11 10 10 10 12 14 14 14 14 16
49 48 47 44 39 39 38 58 85 100 99 100 97 93 93 89 67 35 30 21 19 28 26 27 24 22 21 20 18 17 21 18 16 15 15 13 12 12 11 12 10 12 12 13 15
34 32 31 31 30 34 30 34 58 90 90 96 100 99 95 90 54 46 53 55 55 48 36 30 26 24 23 24 20 20 16 16 16 16 14 12 12 12 13 13 12 12 12 12 13
28 28 25 26 26 29 28 28 35 65 90 81 94 99 96 80 68 47 55 51 47 49 43 32 27 26 26 23 22 21 18 16 15 14 14 13 12 12 11 11 10 10 11 12 13
15 15 15 15 17 21 28 35 34 55 100 96 90 96 94 77 52 54 51 48 45 41 38 36 31 29 27 26 25 22 20 18 17 13 13 14 13 12 12 11 11 11 11 12 13
13 13 13 13 15 18 25 32 55 82 97 99 87 94 97 77 35 42 46 42 35 43 39 35 34 31 29 27 24 22 23 19 18 18 16 14 16 16 15 14 13 12 12 12 13
12 11 11 12 13 20 25 29 87 95 100 99 87 98 89 47 52 56 52 45 44 35 34 35 36 34 31 28 26 28 27 34 24 19 17 16 23 15 14 13 13 12 13 13 14
10 10 10 12 16 27 33 48 100 98 100 99 96 96 65 53 57 48 51 46 44 38 34 36 37 36 32 34 36 32 41 38 31 21 19 18 22 15 14 14 12 12 13 13 14
8 12 12 16 24 45 68 98 100 98 100 100 96 90 65 41 36 44 37 46 45 42 39 36 36 39 33 35 54 38 33 29 32 25 21 20 20 15 14 13 13 13 12 12 13
9 18 22 30 51 65 88 99 99 99 99 77 58 51 42 36 40 38 36 41 39 41 40 31 38 43 30 26 29 30 32 35 28 23 28 30 29 17 14 15 14 14 13 12 14
10 18 46 68 76 91 99 97 86 80 69 72 73 58 51 42 44 36 36 33 35 40 30 31 32 24 22 25 30 34 42 45 40 30 29 35 45 43 15 14 13 13 12 14 16
11 22 62 99 98 99 95 97 94 82 66 51 50 61 51 47 44 38 34 35 31 36 33 36 28 21 24 33 36 34 38 46 48 38 34 39 55 44 23 14 12 12 11 14 26
16 39 89 98 100 98 100 100 96 78 82 38 31 34 37 40 35 35 36 35 33 36 34 35 26 27 26 33 33 45 35 40 47 56 81 44 83 47 25 19 13 12 14 28 36
24 62 98 98 92 100 97 99 88 77 71 10 19 31 31 32 27 27 34 35 39 38 37 42 34 38 38 32 27 43 56 62 73 77 66 61 65 44 24 28 22 22 29 38 42
32 90 98 100 100 98 99 100 91 97 74 23 24 31 32 34 32 25 29 34 39 40 39 48 55 56 50 41 37 57 72 67 70 72 94 58 53 61 42 26 18 26 42 44 46
65 97 100 99 98 98 100 100 99 92 23 22 21 24 27 30 35 33 32 37 50 73 70 50 56 47 47 51 38 55 91 92 92 93 68 36 53 60 37 47 24 55 48 47 49
98 100 98 100 99 100 99 99 99 34 37 21 24 19 29 26 28 30 34 34 40 45 47 56 61 46 46 49 50 53 78 74 90 85 57 41 90 73 70 56 65 73 61 48 49
100 100 100 100 100 100 99 98 76 43 26 30 26 31 28 26 28 30 35 33 30 45 73 50 49 36 40 41 42 75 91 57 67 71 94 74 56 56 70 61 65 73 62 45 47
100 99 100 99 100 100 100 85 64 44 48 42 53 52 42 33 36 47 34 29 28 42 34 60 57 45 39 36 35 50 46 97 94 88 87 46 56 84 68 64 52 54 45 42 45
100 100 99 100 100 99 98 86 62 49 46 37 42 41 47 44 40 64 71 32 28 38 36 59 43 53 43 39 31 36 41 80 97 55 78 60 96 95 92 82 56 42 40 44 47
100 100 98 100 100 99 93 62 55 50 32 29 33 37 40 40 43 38 57 53 40 47 60 44 43 55 44 25 24 28 35 70 98 94 90 82 77 84 88 63 36 32 39 45 52
100 99 100 100 99 98 70 56 53 37 35 35 36 36 36 45 53 49 50 55 44 35 38 40 52 54 63 42 27 31 33 30 40 41 45 52 50 82 54 32 36 42 44 52 59
100 100 99 100 99 87 70 64 63 36 34 33 38 42 41 46 37 56 63 53 42 36 42 40 40 46 63 60 34 36 27 24 30 60 44 36 45 56 36 34 47 49 52 60 66
100 98 71 96 97 84 65 49 57 52 34 37 48 48 47 52 44 54 57 55 44 43 39 39 51 38 33 24 23 28 24 22 25 25 42 29 20 46 52 58 57 58 60 65 71
99 99 78 48 63 81 71 68 48 42 39 40 51 45 46 54 46 51 66 50 53 40 44 44 60 46 42 26 23 24 17 18 20 20 18 16 21 54 64 70 72 70 73 75 78
96 84 92 59 89 71 66 61 55 40 40 32 39 45 50 53 50 38 39 39 35 50 56 45 52 42 40 28 23 26 26 18 20 17 25 29 54 48 72 79 86 83 83 86 91

GFSSW_850_rhum_111.txt.gz
RH
85 86 86 80 81 80 72 74 72 92 99 99 89 80 80 82 66 48 50 49 54 50 43 20 23 24 25 26 24 19 30 30 26 23 19 15 18 15 11 11 12 14 14 13 16
74 70 66 64 56 54 54 48 48 63 88 97 100 86 85 89 72 38 38 41 30 18 28 36 24 24 23 20 20 23 34 28 20 18 20 18 17 15 14 13 13 12 13 14 14
53 50 46 41 38 34 30 30 30 32 57 65 90 86 99 91 67 42 34 24 34 49 52 42 40 27 24 23 23 22 28 22 20 17 18 19 18 16 14 17 14 15 14 14 13
36 33 32 30 29 31 30 29 26 27 42 87 58 63 86 89 64 40 47 53 47 42 42 45 31 28 28 30 23 29 24 21 19 17 18 18 17 17 14 14 12 12 12 12 12
25 23 22 22 19 19 21 22 25 28 34 60 99 89 85 88 62 19 30 34 51 49 47 42 35 30 33 29 28 30 27 24 23 21 19 18 16 16 16 14 12 12 11 11 11
14 14 14 15 15 15 15 20 21 30 56 71 99 97 96 91 21 42 53 53 51 50 41 40 39 34 34 32 34 30 29 28 25 22 21 21 20 17 15 14 13 12 12 12 11
13 13 13 12 12 13 14 17 22 30 88 80 100 92 99 72 23 22 53 59 52 39 38 40 38 36 35 40 34 30 35 30 28 23 23 20 24 22 18 16 15 14 15 13 12
12 12 12 12 12 13 15 22 27 42 98 90 94 92 97 36 40 34 33 35 44 48 38 35 35 33 35 35 34 38 36 44 30 27 25 27 36 23 18 16 16 16 16 14 12
11 10 10 12 13 18 23 31 45 82 100 90 96 99 90 52 45 33 45 52 48 44 44 38 35 37 38 48 53 46 56 47 39 28 29 30 35 24 29 25 17 16 15 14 13
9 9 11 20 25 37 43 64 74 98 98 92 97 95 63 32 42 46 42 46 48 45 43 38 37 46 50 58 72 55 54 44 41 29 38 43 37 27 26 28 25 16 14 14 14
8 8 14 30 42 86 92 89 100 100 97 72 61 76 41 36 34 42 36 39 41 44 55 42 57 63 53 48 43 41 41 39 33 32 39 43 42 45 37 36 34 19 14 14 25
8 9 16 40 73 79 99 89 77 83 88 78 69 72 50 32 51 39 37 37 41 51 44 51 57 42 37 37 36 34 38 44 38 32 38 43 50 40 35 37 36 32 14 16 43
9 11 19 46 98 98 95 88 86 80 81 62 54 60 72 60 61 50 41 40 40 46 46 52 41 32 32 33 32 32 42 43 42 36 41 48 52 45 34 32 32 28 18 17 43
10 17 33 82 99 96 100 94 88 80 98 61 44 47 58 55 50 42 45 40 40 47 42 45 34 38 38 38 34 44 36 58 65 74 86 64 85 52 42 38 33 35 25 44 50
9 16 44 99 87 94 95 92 89 84 100 24 25 32 36 49 33 33 39 41 46 45 45 49 42 43 59 48 48 56 63 69 72 79 76 68 86 55 40 39 34 41 40 51 51
12 17 39 97 98 87 91 93 94 97 93 33 31 33 37 44 33 33 34 34 37 46 48 47 52 58 60 49 46 59 70 65 70 82 95 61 66 59 47 46 58 54 49 51 51
26 32 61 95 91 89 93 96 100 98 30 23 28 33 37 39 36 34 36 48 60 75 75 56 58 54 52 64 51 76 79 94 93 97 86 38 64 64 47 53 63 68 73 57 57
54 95 98 100 86 96 98 99 98 52 41 20 25 23 34 30 32 38 42 49 49 54 59 70 72 48 52 60 60 74 75 87 94 92 87 64 92 74 77 90 93 87 83 70 60
100 100 97 99 100 100 99 98 82 55 31 34 30 32 32 27 29 32 42 46 39 47 67 68 55 42 41 45 53 73 91 57 86 74 90 73 65 69 83 92 91 80 75 62 57
100 100 98 99 100 100 98 84 70 48 37 45 58 49 40 33 32 37 60 38 39 35 46 58 78 44 44 47 49 61 57 95 96 93 89 59 74 97 98 100 95 81 57 63 69
100 98 97 100 100 100 97 97 70 51 43 53 62 61 57 50 44 60 68 60 52 51 43 61 64 53 47 62 61 59 68 78 88 97 96 85 99 100 100 99 95 82 65 61 65
99 98 97 100 98 99 97 86 58 59 49 54 52 52 56 47 47 48 66 61 47 52 66 62 66 69 55 44 42 39 53 61 97 92 98 98 99 92 84 88 82 55 62 66 74
98 99 100 100 98 97 87 69 59 64 69 68 43 41 38 47 56 54 63 61 45 55 81 78 99 83 56 58 52 47 39 62 67 83 79 78 92 77 84 60 55 62 65 70 75
100 99 100 100 100 97 79 91 92 80 53 51 39 37 48 54 50 54 81 56 47 43 42 48 56 57 67 73 64 48 37 38 54 81 64 52 82 83 60 63 62 67 69 74 80
100 99 85 98 97 100 80 79 73 77 47 39 47 52 61 65 58 56 57 66 49 42 44 55 67 48 42 50 34 30 30 30 37 40 57 42 74 83 78 77 72 72 74 78 85
100 98 96 78 72 92 89 99 87 67 66 48 62 56 56 64 56 60 83 89 63 46 55 52 82 52 59 39 28 30 24 21 22 23 23 55 90 73 76 78 82 78 83 86 89
99 95 98 98 93 90 82 75 70 64 48 41 45 53 59 56 54 45 61 58 48 56 62 60 69 64 81 45 37 36 46 40 48 62 56 75 79 72 79 84 95 92 94 96 100

GFSSW_850_rhum_114.txt.gz
RH
82 79 75 75 72 68 58 52 52 50 46 47 51 33 28 36 23 26 23 31 44 49 31 34 26 23 24 25 23 24 33 41 32 25 24 18 21 18 17 16 14 14 14 14 17
75 70 66 60 55 49 42 37 34 30 26 25 29 37 28 43 18 10 22 40 26 23 43 47 42 33 26 23 21 26 38 32 26 22 22 20 20 20 18 18 15 13 13 14 18
62 57 51 47 41 34 28 26 26 28 26 25 28 32 34 40 25 29 27 25 47 50 47 44 42 36 28 25 25 26 30 24 22 21 20 21 20 19 19 20 16 13 12 12 12
46 40 34 30 28 27 25 24 25 25 26 24 28 46 34 39 38 39 33 43 50 36 46 45 37 30 30 31 26 33 27 26 26 25 26 26 22 22 18 18 16 15 14 13 12
30 27 23 20 18 16 16 16 18 20 23 26 45 58 52 69 32 15 38 45 30 33 53 45 38 36 35 31 34 38 33 31 30 30 29 26 24 24 22 20 17 15 14 14 13
18 15 14 15 14 14 14 15 16 20 21 67 71 94 91 91 17 32 40 41 51 54 55 42 41 39 39 37 40 35 37 35 31 30 27 27 25 23 22 20 19 18 18 16 14
13 13 13 13 13 13 13 14 16 17 24 83 97 100 98 37 16 24 31 52 52 57 50 39 39 40 39 41 38 36 43 38 35 30 29 26 30 30 22 22 21 20 19 17 16
13 13 13 13 13 13 13 16 23 23 31 96 98 100 89 18 35 23 31 32 55 54 49 42 37 37 35 36 38 43 44 54 34 28 28 29 41 27 25 27 28 28 28 26 18
12 12 11 11 15 16 22 26 29 30 59 98 95 99 89 40 31 25 28 30 37 46 45 46 41 36 37 50 65 52 69 56 43 30 32 35 43 34 29 30 31 31 30 28 26
13 11 9 11 22 37 31 65 70 78 97 98 100 98 54 31 32 37 36 40 46 48 46 45 36 50 57 67 78 65 64 54 52 39 36 43 40 31 31 35 35 35 33 30 25
12 11 10 12 30 36 79 77 74 96 99 67 67 72 41 41 43 41 37 45 50 47 58 46 60 67 55 58 52 51 54 55 46 34 39 39 39 39 35 35 33 32 33 33 48
14 12 12 19 37 87 98 83 64 89 94 80 64 74 40 36 49 42 38 46 47 60 53 59 70 53 47 50 54 56 59 54 37 33 37 42 47 40 36 34 31 32 32 53 64
18 15 18 38 54 98 94 70 75 87 89 79 51 79 73 50 66 45 42 42 47 55 55 65 51 42 46 49 51 49 50 44 43 54 45 51 60 43 34 34 32 31 30 46 54
25 20 24 62 94 96 91 79 82 93 98 64 67 59 64 62 66 39 38 44 46 53 52 56 43 45 45 46 44 54 55 59 64 70 74 63 80 46 38 38 36 34 47 64 71
28 26 31 69 93 95 78 79 88 89 38 26 44 44 53 54 39 43 40 46 50 51 51 58 45 50 51 46 49 60 61 66 70 80 89 68 93 46 37 42 40 61 83 83 81
38 36 42 58 100 81 79 82 96 92 73 38 38 55 65 50 43 39 49 46 42 54 53 52 48 48 50 50 49 65 65 64 75 87 99 58 72 70 54 58 63 74 85 89 82
50 40 43 46 94 86 84 94 99 96 38 33 39 53 54 57 52 39 44 52 60 72 74 58 61 59 56 67 58 68 72 89 88 86 87 56 67 63 93 94 80 83 93 93 86
60 50 56 70 89 89 92 98 100 60 49 25 30 34 48 47 49 45 47 57 52 51 70 78 73 67 58 60 68 78 72 89 90 93 89 58 88 99 95 97 99 95 97 100 98
75 81 99 99 92 93 94 98 73 58 40 39 31 35 35 39 38 45 47 48 46 54 62 72 66 43 56 54 53 77 86 59 86 87 96 71 74 76 96 100 100 100 100 100 100
91 87 92 91 99 96 98 95 73 48 42 46 64 53 50 34 39 40 51 48 44 47 47 59 66 51 47 49 53 63 64 93 96 96 96 70 92 94 100 100 100 100 100 100 100
96 95 93 100 95 100 98 90 64 50 50 54 58 65 57 51 46 63 59 56 52 52 47 63 66 66 56 63 70 73 72 81 81 94 97 95 97 98 100 94 97 99 100 93 88
100 93 95 100 99 100 98 79 58 61 55 58 63 65 65 56 52 50 72 58 49 51 66 82 78 92 60 53 50 52 61 74 94 88 97 94 97 95 86 83 76 79 87 91 92
99 100 97 100 97 95 97 91 72 74 61 62 63 60 56 58 69 60 56 62 52 65 79 87 100 97 90 64 53 60 51 55 66 91 93 90 89 91 87 72 64 70 76 82 88
100 99 99 100 100 98 96 98 88 75 81 71 64 59 50 55 53 62 80 63 53 62 77 82 100 99 85 69 61 58 46 57 74 96 76 70 87 83 91 73 69 75 82 86 91
100 99 88 98 98 93 80 70 75 97 76 80 78 62 62 68 59 64 73 65 50 55 58 83 91 74 56 55 53 49 29 36 55 57 68 58 84 94 82 81 79 80 81 87 95
99 100 100 92 76 93 97 98 81 72 67 91 99 87 65 68 61 68 78 86 68 48 67 68 96 94 91 55 39 31 26 24 23 40 77 78 95 76 81 82 81 80 87 91 93
100 81 100 89 88 91 81 75 78 75 66 56 66 64 64 64 54 47 60 72 71 58 71 82 96 96 94 75 69 64 39 52 65 66 67 82 76 78 85 84 87 95 95 96 98

GFSSW_850_rhum_117.txt.gz
RH
83 80 75 74 69 65 61 54 45 38 31 26 19 16 14 14 8 9 8 13 22 43 39 35 33 28 26 23 26 24 36 43 33 29 25 20 24 20 20 19 18 16 15 14 19
84 78 73 68 61 56 49 41 32 26 23 22 19 17 16 19 12 11 30 34 37 36 44 50 44 40 30 24 24 28 41 37 28 23 26 23 24 23 21 20 19 17 16 14 14
75 70 64 58 50 42 33 27 24 23 23 23 19 17 16 18 13 32 26 33 47 50 44 43 41 40 31 28 26 28 34 29 24 22 26 29 29 26 22 23 18 17 18 15 15
66 58 49 41 33 26 24 22 20 18 19 19 18 18 20 27 16 39 28 33 41 48 32 43 40 32 32 32 29 34 29 30 30 31 32 34 30 28 26 24 23 22 19 16 15
49 40 32 27 22 19 16 15 15 16 17 18 17 21 26 56 13 19 33 36 46 52 35 49 40 36 38 37 38 40 37 37 36 33 32 30 32 30 28 24 22 22 21 21 20
33 26 21 17 15 14 14 14 14 15 16 22 24 38 44 88 14 25 21 21 29 28 52 51 41 41 40 42 44 39 41 40 37 35 34 34 32 27 26 23 22 25 27 27 26
19 16 14 14 13 14 13 13 14 14 18 26 72 96 66 19 15 19 28 33 45 53 56 46 39 41 41 41 40 38 46 43 38 34 34 30 36 33 20 29 29 28 28 28 27
14 14 14 14 13 14 14 14 14 17 22 70 100 99 65 12 14 14 18 19 28 52 56 42 42 46 37 37 43 46 48 56 38 31 29 32 44 34 30 28 29 31 30 28 28
14 14 13 13 12 13 19 17 19 24 87 94 98 97 77 29 22 28 24 25 27 37 58 49 52 49 39 50 65 59 69 59 46 33 34 36 42 34 28 27 32 32 30 31 28
14 14 13 13 12 16 28 26 62 85 97 98 97 90 42 21 36 33 33 33 45 43 50 52 50 55 60 66 79 69 71 60 52 38 40 46 43 31 28 30 35 34 33 30 32
15 14 14 13 16 20 35 72 71 85 98 71 74 61 38 43 44 36 41 47 53 51 63 48 59 68 56 61 54 54 59 64 53 44 47 45 41 36 32 34 36 34 34 32 55
18 15 12 14 26 42 93 83 69 93 94 64 56 72 36 51 49 38 46 50 55 65 57 62 76 54 50 53 59 61 67 67 54 45 44 48 47 40 37 38 33 33 35 50 78
25 21 19 22 47 64 88 59 93 90 94 81 60 86 73 53 67 37 45 45 52 61 65 75 59 52 55 59 62 62 67 64 60 55 52 56 60 41 32 31 30 31 32 38 69
36 33 32 44 70 95 92 59 89 91 98 64 81 70 66 70 76 32 41 45 48 57 55 62 48 50 53 58 58 71 49 55 63 66 80 58 77 43 42 53 62 80 89 82 89
44 44 48 49 86 84 76 76 92 94 34 35 64 55 63 69 43 54 45 45 57 56 56 62 49 60 61 52 47 56 60 58 66 77 84 82 85 72 66 81 91 88 94 100 99
50 48 62 64 99 55 79 86 94 73 30 32 62 70 77 63 49 60 57 49 45 52 55 55 47 47 52 49 51 64 62 66 83 86 98 65 68 77 94 97 88 85 89 96 99
58 52 67 69 67 72 97 96 96 80 30 33 55 68 66 66 54 47 66 62 69 80 82 60 62 56 53 64 68 64 68 96 93 96 90 59 75 95 95 95 95 96 100 100 100
56 58 65 58 63 72 100 99 99 60 57 34 38 60 64 55 55 51 66 75 58 52 72 78 69 74 63 57 75 78 74 87 91 91 86 68 80 97 96 95 98 99 99 99 99
68 69 76 96 93 89 98 97 77 66 46 43 29 35 47 50 46 54 59 61 56 56 58 77 71 51 61 57 57 76 85 61 86 89 97 76 96 98 96 95 96 99 100 100 97
79 89 89 99 90 100 98 80 75 48 44 50 54 46 45 39 56 59 57 48 47 51 45 58 68 52 54 54 56 63 63 87 93 91 92 76 86 95 99 100 100 99 99 100 100
94 96 88 99 99 100 96 80 58 50 46 53 60 62 61 55 45 52 52 50 49 54 50 58 65 62 62 68 77 74 81 78 81 90 92 95 88 88 98 96 98 98 99 99 100
99 99 83 100 99 100 96 80 59 60 50 58 62 66 66 60 59 54 63 58 51 58 70 71 82 86 68 53 55 59 65 84 92 94 90 95 90 75 89 86 89 86 99 99 100
98 98 90 99 95 94 82 76 68 65 63 68 62 63 63 68 73 63 57 60 53 69 82 85 92 99 90 83 75 92 64 64 76 82 94 95 82 86 81 86 77 77 82 88 92
99 99 100 100 97 88 93 96 87 79 73 76 68 60 66 67 64 63 71 68 56 67 81 76 92 84 75 76 74 94 74 62 73 98 87 86 86 93 93 74 76 84 87 90 94
100 99 91 98 97 95 85 83 89 93 75 76 71 80 77 78 68 71 75 67 53 79 85 83 94 96 90 84 91 94 82 73 68 71 80 64 88 84 86 76 80 85 89 90 92
98 99 99 98 78 96 90 84 87 76 66 97 94 78 88 82 82 62 76 72 68 67 73 81 90 90 89 73 62 75 47 28 48 56 64 72 91 76 77 84 92 92 90 89 94
99 98 99 94 91 94 82 81 71 71 65 62 73 86 84 87 78 71 52 62 70 64 83 88 96 97 88 87 96 97 63 35 67 68 76 87 78 81 88 88 93 95 93 98 99

GFSSW_850_rhum_120.txt.gz
RH
87 80 78 74 74 70 64 58 52 44 35 25 17 13 12 12 11 9 10 11 20 24 43 32 36 36 30 25 26 23 39 44 34 31 27 22 27 24 23 21 21 18 17 16 16
89 86 81 74 70 65 58 50 42 32 24 20 18 16 14 13 10 17 36 25 43 44 35 47 46 41 35 25 26 30 44 39 30 26 25 27 29 30 26 26 24 22 22 22 20
89 86 78 71 65 56 47 37 28 22 20 18 17 15 14 15 11 31 36 37 40 39 44 44 39 40 34 29 27 30 38 31 26 25 34 35 34 30 27 30 25 24 24 21 20
90 85 74 64 53 43 32 24 20 18 16 15 15 16 15 17 12 40 30 33 35 41 42 35 35 34 34 34 32 36 31 32 35 35 35 37 33 31 28 28 26 25 24 25 26
79 70 60 47 37 28 22 17 15 15 15 15 14 15 16 34 11 17 32 34 37 39 46 42 42 37 40 42 40 41 40 40 38 38 37 35 37 35 32 28 27 28 28 27 25
66 54 41 30 24 19 16 14 14 14 14 15 17 17 32 69 14 16 17 29 35 39 40 43 43 42 42 44 44 42 43 42 39 36 34 39 37 30 27 29 27 24 21 21 21
46 38 26 20 16 15 14 13 14 14 14 18 22 35 42 16 14 18 29 28 26 32 45 51 42 42 43 42 42 40 48 46 39 35 36 32 30 33 30 28 24 23 22 22 24
32 22 17 15 15 14 14 13 13 14 16 23 56 83 39 14 14 13 16 15 22 26 50 53 45 48 41 40 44 48 51 57 35 38 32 32 43 31 32 28 27 25 24 25 27
22 18 16 15 14 13 13 13 14 15 44 95 78 88 47 24 26 26 28 27 28 26 47 57 55 50 43 56 65 64 60 60 50 35 38 39 45 36 28 30 31 30 30 31 33
22 20 18 16 15 14 13 16 40 67 87 98 96 77 28 22 37 33 35 36 39 36 53 59 53 57 65 67 62 64 72 64 59 40 42 49 49 40 32 31 32 34 33 33 44
26 24 21 18 15 16 18 37 62 71 98 52 49 48 38 41 43 36 38 41 56 50 67 54 70 78 66 61 54 56 55 60 57 48 56 56 48 42 34 36 37 35 35 42 77
40 30 27 21 18 26 27 57 66 90 93 60 50 61 41 52 39 44 52 45 57 70 62 68 81 62 53 59 60 63 69 73 62 51 48 52 54 46 44 46 73 88 64 80 97
43 35 36 30 30 29 40 58 92 92 91 72 56 74 72 49 60 33 52 52 60 68 71 80 56 56 58 61 65 68 71 70 70 56 55 64 61 50 52 75 86 98 98 100 100
44 46 43 42 51 39 72 56 90 92 90 58 89 77 78 63 71 32 30 48 50 69 67 68 56 55 65 66 66 80 60 62 62 68 79 57 84 71 74 81 77 97 99 100 100
50 50 55 49 63 72 84 82 93 90 33 43 79 67 74 66 52 63 46 47 59 60 56 58 55 58 65 56 56 66 52 59 66 76 82 77 85 71 83 86 85 94 100 100 100
63 56 54 60 48 41 86 95 90 70 26 54 74 81 84 74 57 63 53 47 47 54 55 57 50 52 55 53 52 61 64 65 84 85 94 74 75 76 92 95 95 98 99 99 99
73 72 58 61 36 66 88 95 91 74 23 43 75 80 76 76 60 62 66 65 70 78 77 58 60 54 51 61 67 62 69 95 95 95 90 63 77 84 94 95 94 96 99 98 93
72 70 64 62 46 54 99 100 96 40 45 36 56 69 74 63 55 57 73 75 62 58 82 81 63 69 63 57 73 78 71 81 94 92 78 69 89 82 85 88 95 98 99 100 100
81 74 73 59 54 67 99 98 78 64 51 40 25 46 63 54 46 56 74 76 63 61 62 77 71 62 66 58 60 80 82 68 94 91 96 80 88 93 87 90 96 99 100 100 100
76 80 83 61 72 92 96 80 73 52 45 52 36 35 42 48 63 63 67 54 57 56 45 55 66 54 60 55 61 67 64 92 99 94 90 76 81 91 98 98 94 98 99 99 99
79 95 81 69 92 98 95 78 57 52 49 48 58 63 62 55 59 64 58 48 50 54 52 59 62 62 68 73 80 78 81 77 81 88 90 92 88 83 87 89 95 97 99 99 99
87 99 79 92 99 93 95 75 58 56 50 57 63 64 61 59 60 55 62 53 53 59 68 63 73 75 67 60 61 67 72 77 94 91 92 94 89 80 82 85 90 96 97 99 95
94 90 91 100 96 98 85 74 66 68 62 66 64 68 66 66 69 63 54 53 54 67 77 84 92 96 88 76 73 77 72 65 69 84 91 94 77 76 78 83 88 92 91 92 95
99 99 93 100 92 78 85 96 91 69 67 71 72 62 66 70 68 74 64 64 60 65 77 76 89 75 71 62 76 97 87 79 80 98 87 76 94 90 91 86 80 86 89 91 93
99 99 91 98 97 93 81 78 80 80 73 72 93 85 81 87 77 78 71 69 58 65 90 88 83 96 84 82 84 84 83 82 94 90 96 86 75 82 82 79 86 88 89 90 94
99 99 100 93 80 97 88 95 87 76 71 90 86 77 76 89 72 68 67 79 81 84 90 87 92 92 89 81 85 92 86 88 92 98 100 90 86 74 74 84 88 89 88 90 96
99 98 77 91 93 96 92 79 68 72 68 65 70 89 98 81 72 70 76 73 75 86 86 92 95 97 91 82 89 93 80 70 61 67 72 86 74 81 86 85 91 92 90 90 96

GFSSW_850_rhum_123.txt.gz
RH
100 98 89 84 82 77 70 64 59 52 44 36 27 18 13 11 9 8 9 13 18 26 28 35 29 34 27 25 25 23 28 33 30 29 25 24 26 29 26 23 26 19 22 23 22
100 98 92 88 82 76 70 62 54 43 33 24 18 14 13 12 9 8 23 34 24 27 42 43 44 40 31 25 26 25 32 31 27 25 24 31 31 31 28 27 27 25 24 24 22
97 93 91 88 81 75 65 55 43 31 22 17 14 12 13 12 9 24 39 37 43 44 43 46 42 37 34 30 28 31 29 28 25 28 37 34 32 32 29 28 26 27 28 26 27
93 90 87 85 80 68 56 42 30 21 16 14 13 13 12 13 11 34 32 36 43 43 43 38 33 31 33 32 34 31 31 30 35 38 38 35 35 31 29 26 28 28 28 24 22
91 86 82 77 69 56 43 29 20 16 14 14 13 13 12 23 10 12 28 34 39 41 44 42 39 35 35 37 40 38 38 42 41 40 39 39 35 32 31 31 28 26 23 21 21
86 84 76 68 54 40 27 20 16 14 14 13 14 14 16 43 13 14 16 31 36 40 42 41 42 41 44 44 40 43 42 41 40 36 39 36 32 33 32 29 28 24 22 24 26
80 69 58 48 35 25 19 15 14 14 14 14 14 15 20 12 11 14 19 20 24 33 30 41 43 41 44 42 42 42 41 37 33 35 32 34 24 28 32 30 28 27 28 30 40
59 51 44 31 22 17 15 14 14 14 15 16 16 20 19 11 13 15 19 22 30 36 47 54 43 44 43 42 43 42 43 31 30 32 35 29 30 26 32 30 28 29 30 34 53
55 44 30 22 17 16 15 15 14 17 18 28 40 36 26 19 21 23 16 25 27 24 37 58 52 50 44 47 44 51 31 47 36 33 32 33 38 30 31 33 33 32 35 44 64
65 35 28 21 17 17 17 18 25 43 56 49 71 58 20 19 33 37 41 40 40 39 52 61 54 51 55 48 27 33 46 52 44 32 38 43 42 36 35 36 48 62 60 84 84
75 50 36 24 19 18 21 41 51 68 86 33 41 37 37 40 42 44 47 53 43 51 58 58 58 58 50 52 43 46 47 51 48 42 51 48 44 38 41 74 81 80 85 99 100
95 68 40 28 22 22 27 45 59 90 84 38 42 45 41 46 41 48 53 44 54 53 59 58 66 55 50 54 52 54 58 55 52 46 46 44 46 52 69 86 95 95 96 98 98
99 71 42 35 25 26 32 46 86 90 94 59 51 54 55 40 47 37 53 53 59 64 63 58 43 54 53 58 61 61 62 62 60 52 47 50 48 65 64 78 91 96 98 99 100
98 65 47 40 40 30 45 36 90 87 73 45 86 78 70 52 54 30 44 49 54 58 65 60 53 56 60 60 57 68 55 56 60 56 60 51 61 58 69 71 83 95 100 99 99
71 61 57 46 44 69 74 48 89 96 33 46 86 78 75 58 59 67 44 52 55 59 52 47 54 61 61 52 54 52 52 53 56 63 70 61 66 69 66 68 94 95 100 99 94
67 60 57 51 47 67 95 91 88 64 32 58 80 83 82 77 64 58 52 49 47 53 54 48 52 47 47 57 48 53 58 62 70 70 77 57 57 63 69 69 88 94 100 98 98
80 75 64 52 38 68 93 99 84 63 21 53 74 82 74 73 66 57 56 58 57 66 67 59 57 52 50 58 62 52 61 66 78 86 67 60 70 47 78 74 74 82 98 99 99
81 87 83 69 48 77 99 100 92 32 36 36 65 77 71 62 56 66 61 64 57 53 69 66 52 57 50 46 53 64 53 60 74 74 58 62 68 55 72 80 82 91 99 100 99
82 84 85 76 70 76 100 96 70 58 45 35 41 64 70 59 52 59 58 61 53 54 44 67 58 60 62 56 48 70 73 52 71 82 87 54 56 76 79 83 89 97 98 100 99
84 97 95 74 77 88 96 77 70 52 46 49 28 34 46 56 57 59 69 55 54 52 45 51 57 54 61 53 56 58 54 84 95 85 80 55 58 62 99 99 94 96 99 100 99
92 98 77 64 79 98 96 76 56 55 49 49 55 63 58 48 61 65 56 48 51 55 48 52 52 61 65 66 66 67 69 69 69 82 68 56 56 77 88 77 87 88 100 99 99
99 99 81 76 97 87 91 67 53 56 46 54 59 66 58 58 60 56 58 49 52 55 64 55 65 67 60 64 52 54 61 64 86 89 93 90 62 67 64 65 78 88 100 100 100
98 82 95 99 94 92 71 66 62 65 56 62 63 63 65 66 61 62 54 55 56 58 65 71 84 76 74 79 71 71 68 66 76 83 80 89 54 72 70 74 85 90 93 95 94
99 99 100 100 85 79 74 75 74 61 64 63 70 61 67 68 66 70 66 60 60 63 75 71 84 70 70 73 71 89 75 68 78 85 74 65 53 78 77 84 80 86 88 90 92
99 100 88 98 98 84 76 74 78 75 66 67 67 77 70 75 68 70 61 60 60 61 82 80 74 74 64 58 64 59 59 63 76 72 78 55 62 55 75 80 82 85 90 91 92
98 99 100 90 83 84 74 73 67 70 68 97 89 79 78 81 67 65 67 71 63 79 92 87 78 77 74 71 74 79 68 67 65 66 72 70 80 65 68 84 85 86 87 86 93
99 92 75 92 84 93 91 70 70 64 65 63 75 79 82 80 74 70 74 70 67 74 86 93 89 94 81 68 84 94 71 66 62 61 64 78 64 74 79 81 84 86 85 87 94

GFSSW_850_rhum_126.txt.gz
RH
98 99 96 90 85 81 77 72 67 61 53 44 33 25 17 12 8 7 16 14 15 14 14 23 28 33 25 25 23 22 20 16 18 21 20 20 19 20 23 21 22 20 21 25 26
93 97 98 93 88 84 80 75 69 59 47 37 25 16 12 10 8 7 14 27 24 23 32 33 31 34 25 23 23 20 20 18 20 19 19 21 23 23 20 18 20 20 22 25 26
90 92 96 92 86 83 80 76 66 54 39 25 17 12 11 11 13 27 33 27 30 37 42 42 38 34 28 27 23 21 19 20 20 23 25 22 21 24 21 18 17 24 22 25 23
90 90 95 91 85 82 76 68 58 43 29 18 13 12 12 12 9 24 32 38 43 41 41 38 36 30 24 21 24 22 20 19 21 29 27 24 24 21 18 18 20 24 25 22 22
98 92 92 90 86 80 72 61 48 29 19 14 13 12 13 30 16 9 19 33 41 44 42 36 31 26 18 19 23 22 22 28 28 29 27 25 23 20 17 24 24 24 22 22 25
98 91 89 85 83 74 62 45 29 20 15 13 13 13 22 24 12 10 12 27 38 45 40 36 32 31 25 26 26 32 30 28 26 22 23 25 17 22 23 26 26 23 22 24 41
99 93 89 83 71 58 41 30 20 15 14 13 14 14 24 23 11 12 14 20 30 37 36 39 36 28 33 30 35 32 28 20 18 21 21 23 16 20 24 25 22 21 23 31 59
94 85 77 66 54 40 27 20 16 15 15 14 14 20 36 12 11 15 18 22 27 30 42 47 44 36 35 35 30 25 27 16 21 21 26 18 10 17 24 21 21 24 30 45 71
67 70 62 50 39 26 20 18 17 16 16 17 30 44 31 20 20 20 18 35 32 33 50 56 46 34 36 28 25 29 12 19 17 20 20 18 18 15 20 23 27 34 40 58 70
65 58 66 43 30 22 20 19 22 22 26 28 72 47 25 25 43 39 35 49 49 41 47 44 38 31 30 27 14 11 19 23 16 19 22 22 20 20 23 30 46 44 57 64 72
70 69 53 52 29 25 26 40 73 80 78 32 42 34 40 48 42 59 54 57 44 34 28 41 32 26 16 24 21 23 22 20 17 21 32 25 25 22 29 44 49 57 67 74 80
80 70 61 47 36 30 45 79 60 81 44 47 41 54 35 43 48 54 53 39 36 24 32 43 34 19 33 33 34 29 28 25 22 30 35 24 27 31 46 60 66 65 72 80 83
90 73 72 47 38 37 50 76 51 49 49 34 51 52 48 44 27 32 55 39 31 27 34 19 23 34 38 35 34 32 32 26 30 30 28 34 25 46 51 64 72 78 80 87 89
99 97 59 45 56 82 88 41 52 45 38 22 51 55 62 44 35 32 50 33 37 25 28 28 23 33 34 30 31 26 27 33 36 37 31 35 28 34 40 54 56 65 77 83 86
90 96 78 48 65 87 54 38 71 69 32 28 54 72 69 29 42 45 41 45 27 37 38 28 42 40 36 29 35 26 36 37 38 40 41 32 43 25 38 45 51 56 77 85 94
87 87 76 76 73 84 68 51 90 52 31 43 60 66 62 49 51 53 40 46 30 37 40 26 37 31 28 38 36 35 41 43 44 41 46 27 34 19 40 36 44 54 70 80 95
82 72 54 66 59 94 85 95 74 52 13 38 54 59 49 48 55 45 40 42 39 50 48 34 38 33 36 39 42 38 41 43 39 48 34 39 39 26 34 40 44 54 65 86 95
83 77 66 51 52 91 100 88 68 16 14 30 45 54 50 41 48 47 42 40 37 35 32 43 46 37 35 31 32 42 38 36 39 30 30 41 46 38 41 49 57 59 69 88 100
92 86 84 70 58 89 99 94 32 17 16 23 49 50 49 44 39 48 45 38 35 38 26 35 28 34 40 33 32 47 57 32 41 39 61 32 25 58 59 68 64 67 78 93 100
100 100 99 76 76 93 97 69 37 31 32 28 31 34 33 43 42 43 46 36 35 33 29 32 30 36 49 42 38 43 35 67 58 61 55 28 28 37 82 90 72 70 82 94 100
100 100 97 80 82 100 96 62 38 39 43 42 26 30 25 39 37 40 34 37 39 38 32 29 33 43 52 50 39 52 55 52 46 47 50 42 36 64 78 61 72 70 81 98 99
100 100 96 88 95 84 88 52 33 35 42 45 50 48 37 42 41 43 35 30 44 43 48 38 41 40 44 29 32 30 35 40 68 65 67 68 53 37 38 45 51 57 77 100 92
100 100 98 85 92 86 54 51 43 39 42 40 47 45 45 45 46 40 42 51 50 40 49 50 62 61 45 49 46 47 37 36 44 50 71 79 47 46 44 44 50 59 89 94 89
100 100 100 100 56 52 56 50 50 48 50 54 53 48 48 48 43 42 43 52 57 54 63 58 47 55 49 47 60 93 66 54 57 90 61 50 38 29 47 51 60 74 89 88 83
99 100 98 97 91 51 49 44 45 51 48 47 57 59 53 56 49 51 43 39 42 44 52 48 54 40 38 36 38 53 51 43 51 56 71 49 39 28 26 42 57 73 82 82 80
99 98 97 88 63 57 55 59 43 40 44 50 52 42 44 54 43 41 44 48 47 46 54 55 55 43 44 34 36 38 35 33 34 35 38 39 43 29 30 44 59 75 89 80 78
99 89 68 74 74 77 68 53 47 46 51 44 49 56 62 54 48 45 54 54 55 56 56 66 64 62 62 39 48 68 46 38 35 32 37 46 33 24 34 51 68 83 77 77 84

GFSSW_850_rhum_129.txt.gz
RH
87 89 96 93 88 87 83 78 75 72 66 59 48 38 26 16 10 20 21 19 19 11 6 16 18 19 18 15 17 17 16 12 11 12 16 16 15 16 18 17 18 18 18 22 24
91 91 92 94 94 90 84 80 77 73 64 55 43 34 18 11 8 23 20 14 18 17 17 21 18 20 18 16 16 14 13 13 14 13 12 15 17 15 16 15 15 18 19 21 21
87 87 89 90 94 91 82 78 75 70 61 50 37 25 14 10 27 16 23 20 22 17 32 27 28 26 20 17 15 13 14 16 14 16 16 13 14 14 14 13 13 16 19 19 18
92 93 86 86 89 90 84 78 73 67 55 41 28 17 12 11 15 33 23 28 32 35 33 29 27 23 17 17 16 17 12 13 11 19 17 14 14 14 12 12 14 17 19 17 18
99 95 94 88 88 86 82 80 73 63 46 28 19 14 12 27 20 20 11 25 33 40 29 24 22 18 16 11 13 13 9 15 16 19 19 17 17 15 13 14 18 18 17 18 24
100 100 97 91 87 86 80 77 68 48 33 22 15 13 39 29 24 28 16 32 34 34 27 23 20 20 17 15 15 20 19 18 18 16 15 16 14 14 12 17 17 18 18 25 40
100 100 94 86 85 84 78 67 51 33 22 16 14 14 44 27 24 33 20 28 29 30 27 25 26 22 16 18 20 21 20 13 13 13 14 18 14 12 15 20 16 16 18 32 51
99 100 99 93 86 78 64 49 35 21 16 14 14 43 40 26 27 36 34 33 36 31 30 29 27 21 22 21 21 18 16 15 9 14 16 16 10 12 17 18 15 17 22 38 53
88 80 78 83 74 60 45 30 23 18 15 15 24 63 32 30 25 26 31 29 34 32 37 36 32 23 24 22 18 18 13 14 14 13 11 14 11 10 13 15 16 21 27 42 51
83 79 75 55 50 44 30 23 19 18 33 54 62 53 34 18 29 36 35 29 30 28 35 33 28 24 22 18 18 13 18 13 13 14 16 15 15 11 12 16 24 28 37 44 51
79 79 74 58 51 35 25 48 61 64 60 30 26 24 25 31 42 43 43 31 32 27 27 27 27 24 17 16 15 14 16 12 10 9 17 21 18 13 13 20 27 33 42 49 57
85 81 72 61 55 32 31 65 42 72 43 40 39 30 31 46 32 35 42 33 29 24 18 29 30 15 12 18 19 20 18 16 13 13 22 20 17 13 17 26 35 37 46 51 56
90 92 87 78 49 33 30 63 62 72 37 22 21 27 25 32 24 25 42 32 25 22 18 25 16 16 15 24 24 19 19 18 18 16 18 20 20 18 27 39 44 49 50 56 57
96 90 86 85 61 73 74 53 74 51 43 21 23 34 28 32 25 16 36 27 23 21 14 20 16 19 18 22 19 21 14 21 23 22 23 23 29 18 27 41 39 41 49 54 59
97 87 89 67 78 69 66 55 83 63 73 18 32 44 35 27 16 18 19 30 22 19 16 18 20 21 23 18 16 21 24 24 23 26 24 21 24 18 15 34 34 35 45 57 68
98 91 93 84 74 81 87 75 91 78 72 28 37 40 45 35 20 33 19 28 24 22 22 20 21 23 21 19 21 23 29 28 27 27 38 24 22 18 15 25 24 30 43 56 74
100 96 94 88 70 95 76 95 88 61 22 24 37 37 36 35 28 37 28 34 32 32 31 32 28 22 22 30 26 29 30 38 39 41 43 23 25 18 22 22 21 32 41 55 72
100 100 97 85 88 89 84 86 76 37 26 19 26 35 38 29 33 37 33 33 27 22 22 35 33 26 25 23 30 31 28 32 32 28 20 25 34 26 24 29 35 39 45 62 81
100 100 99 81 85 74 94 96 55 33 18 20 28 40 36 28 29 38 37 30 25 24 28 30 27 20 24 22 20 26 38 22 32 29 37 27 18 34 35 41 45 47 51 68 85
100 100 97 96 83 98 97 85 45 25 17 14 20 29 31 35 34 39 36 27 26 23 24 22 29 23 30 25 24 23 25 45 42 48 44 25 24 27 55 61 50 51 57 76 86
100 100 97 98 99 97 97 73 43 27 21 25 20 25 24 30 32 39 32 28 25 26 26 24 23 31 38 36 24 30 40 35 34 36 41 36 32 36 53 46 56 50 56 81 88
100 99 88 100 98 90 96 56 38 34 31 36 41 30 19 27 31 31 29 28 32 30 33 26 29 28 35 24 22 21 31 33 61 51 49 47 47 24 30 31 35 43 51 77 88
99 100 99 100 96 91 54 46 40 39 32 34 37 37 37 29 30 26 24 42 39 35 39 33 51 48 32 24 29 38 26 35 36 39 50 59 50 30 27 26 29 34 46 77 80
99 99 100 100 92 55 55 50 50 41 36 37 31 28 37 41 33 28 29 45 48 44 48 48 46 36 38 33 53 70 42 32 31 64 63 55 41 28 39 36 32 37 49 72 77
98 100 100 98 98 79 46 41 42 44 48 57 69 42 36 40 32 35 29 40 44 47 40 58 55 35 31 30 59 63 66 52 53 53 90 57 46 39 31 28 42 40 57 70 75
99 96 100 73 66 69 49 43 33 29 33 47 52 45 43 58 41 41 41 44 40 35 35 50 77 55 56 46 29 31 27 26 27 33 40 40 43 29 23 20 21 44 59 67 70
98 99 95 80 68 68 56 38 34 28 26 31 36 37 41 41 32 32 32 46 45 46 50 52 56 58 68 37 36 47 29 27 25 20 22 31 23 18 18 19 30 38 57 64 69

GFSSW_850_rhum_132.txt.gz
RH
76 75 76 80 77 80 81 80 76 73 70 65 59 53 46 36 33 21 26 20 18 19 6 4 17 15 16 14 13 13 16 16 12 10 16 14 12 14 17 16 16 16 20 22 22
82 83 85 89 90 87 85 84 78 74 69 65 60 54 42 26 25 22 24 20 16 9 9 23 16 15 16 14 13 13 15 14 13 12 12 13 14 13 14 15 15 16 20 20 20
91 87 85 87 88 89 88 84 79 75 70 65 60 50 34 18 24 35 17 18 16 20 21 26 21 22 20 16 14 13 16 13 13 18 14 11 12 11 13 11 11 15 18 18 17
95 95 91 86 87 84 85 84 77 73 70 66 57 41 27 16 25 28 13 12 19 28 34 26 23 22 18 16 14 15 12 11 11 15 14 11 11 12 12 11 12 15 17 16 19
97 99 100 90 88 88 86 83 78 71 70 64 49 30 20 32 29 24 22 16 11 32 28 22 20 18 17 12 11 13 11 10 13 13 16 14 14 14 13 12 15 16 16 21 32
100 99 99 100 97 91 88 82 80 72 66 54 37 20 23 37 26 26 25 25 27 28 25 21 19 16 16 13 11 11 16 12 14 14 15 15 14 13 12 14 14 15 18 35 42
100 100 100 100 99 96 90 82 79 69 56 43 25 14 44 34 25 23 32 25 22 23 24 22 20 21 15 12 14 15 19 16 13 13 12 15 17 13 12 15 16 15 20 40 45
100 100 100 100 99 99 93 83 74 56 39 24 16 15 44 22 25 24 23 28 24 28 26 25 24 22 19 16 20 19 15 17 10 11 13 14 12 8 14 17 15 14 18 41 49
84 85 87 92 94 96 83 74 59 38 24 17 16 59 43 30 28 24 25 25 26 27 25 24 28 23 17 21 21 18 16 14 12 11 14 15 13 13 14 16 15 14 19 39 46
74 79 72 79 81 72 60 43 32 24 24 34 57 43 40 24 20 25 24 24 22 27 26 32 27 21 19 21 23 15 17 15 12 13 12 13 14 11 10 11 13 18 27 39 45
88 84 72 73 76 71 50 30 61 80 67 43 34 28 18 21 30 32 32 25 22 25 26 24 26 25 19 19 16 11 14 14 10 9 15 16 15 14 13 10 18 26 30 40 48
84 86 88 86 83 72 44 35 56 68 58 51 47 33 27 30 34 29 34 28 23 26 22 21 30 19 15 14 15 16 18 18 13 9 10 14 17 15 12 11 18 24 38 42 49
91 90 94 88 86 72 50 47 59 57 44 38 30 29 32 24 25 22 34 26 24 28 22 22 19 17 17 14 17 18 20 18 15 12 14 18 20 17 13 14 31 34 35 44 47
93 98 91 100 95 71 74 63 71 28 60 45 23 22 20 22 21 20 30 28 24 25 21 18 14 16 17 17 15 24 15 14 15 19 24 14 28 16 22 26 34 38 42 46 50
99 100 100 85 85 78 75 78 77 48 94 27 27 26 24 21 16 20 18 31 26 23 20 20 15 17 20 17 14 19 15 18 18 24 23 20 22 18 14 34 36 36 41 47 54
100 98 100 99 85 75 83 75 64 83 88 33 29 31 29 22 22 17 16 25 25 24 20 18 12 14 16 15 15 13 24 24 23 24 42 25 24 21 16 21 32 31 38 50 64
97 100 98 92 87 85 80 76 92 92 30 28 31 31 31 31 29 24 19 20 31 38 34 21 19 17 18 22 17 20 33 44 42 41 42 21 23 23 19 22 25 32 42 53 65
97 100 99 98 86 78 89 96 94 36 34 17 20 28 35 30 31 26 32 20 24 25 26 32 33 22 20 23 26 28 32 35 39 41 30 17 31 23 22 24 27 32 41 57 68
95 100 100 96 95 85 97 98 60 37 22 26 20 28 34 29 26 25 33 33 21 25 32 28 26 17 19 20 21 28 35 24 34 34 44 29 21 27 32 37 35 37 49 64 76
93 100 100 97 99 98 98 90 60 33 26 24 33 27 34 33 29 29 35 30 27 21 24 23 34 19 18 20 21 22 23 46 48 52 51 30 26 33 48 54 44 47 55 67 77
99 99 97 99 100 99 98 82 60 41 28 31 30 25 24 29 29 30 34 27 25 22 22 24 34 29 26 32 29 27 30 31 36 42 42 42 46 38 52 47 48 48 52 70 77
98 98 89 99 99 99 96 70 49 42 40 41 38 38 33 26 29 36 32 28 23 23 29 27 32 37 29 24 20 19 25 29 61 54 55 56 52 39 45 38 37 38 45 67 75
97 94 78 98 98 98 66 53 51 42 36 63 53 37 34 35 35 39 44 52 44 30 35 33 52 52 34 31 25 28 24 26 36 44 57 63 49 24 23 28 30 32 39 67 76
98 98 94 96 100 95 68 57 54 44 38 58 57 49 36 43 36 36 70 61 46 51 49 45 42 46 47 32 34 44 34 38 44 68 62 53 48 35 33 40 48 45 45 65 74
98 96 75 94 99 98 62 49 53 52 40 43 85 61 57 53 38 40 49 61 47 50 40 52 58 40 33 27 28 46 55 62 70 74 86 62 50 38 36 49 53 48 43 62 69
96 98 99 77 98 92 67 59 49 45 41 50 71 51 46 54 73 82 65 65 47 40 45 45 58 48 52 39 41 52 80 62 56 54 55 54 44 34 30 26 51 52 45 60 64
99 98 100 82 77 95 83 70 51 41 37 34 48 52 51 44 49 57 72 71 57 56 58 56 62 58 65 44 54 69 62 50 41 29 27 34 28 21 22 23 23 43 46 58 62

GFSSW_850_rhum_135.txt.gz
RH
75 73 72 67 68 72 75 77 75 72 68 65 60 59 56 51 45 37 27 23 21 18 16 7 4 12 15 15 14 13 24 29 22 20 20 14 17 16 16 17 18 22 23 22 22
77 79 83 80 75 73 78 80 78 74 70 66 61 59 57 50 41 28 21 18 17 17 12 11 24 20 16 16 16 16 26 20 16 17 17 15 15 14 14 17 19 21 20 20 21
86 84 87 84 84 85 84 81 78 77 70 62 60 61 55 46 34 32 15 14 14 15 13 26 23 22 23 20 17 16 22 17 18 16 14 13 13 12 13 14 17 19 19 22 21
91 92 94 96 88 90 87 84 80 76 72 65 61 61 49 37 39 31 30 23 19 16 27 28 25 24 25 26 19 18 16 14 16 16 15 16 14 14 14 15 15 17 19 24 33
97 95 95 95 98 99 95 88 84 78 73 71 62 55 38 32 36 34 29 25 19 8 17 28 24 21 26 20 16 18 16 14 12 16 16 15 15 15 15 14 15 16 22 30 40
100 100 100 99 98 99 99 94 88 82 75 72 59 42 23 44 27 23 22 23 20 14 28 25 21 19 19 19 19 13 16 19 15 14 15 17 16 14 14 14 15 23 29 36 39
100 100 100 100 93 96 98 100 94 84 76 68 48 26 21 27 27 23 28 26 16 23 24 25 24 22 22 24 18 18 20 21 20 18 16 15 19 19 14 14 15 35 38 41 48
96 94 98 95 100 100 99 99 93 85 75 58 34 18 28 26 23 22 23 26 23 23 25 26 26 24 24 22 20 23 23 31 18 16 16 16 22 14 14 15 16 41 44 47 52
85 81 88 82 88 81 88 95 90 78 62 33 25 40 61 36 29 21 24 24 26 26 27 24 24 27 25 27 31 28 31 24 19 14 20 17 20 20 15 16 16 44 47 50 54
89 89 87 80 78 81 77 70 55 51 32 32 24 49 39 29 24 22 24 22 25 26 27 26 30 35 34 34 45 36 31 25 23 17 19 21 20 17 17 18 17 42 48 51 53
65 77 89 86 81 78 69 58 61 68 60 54 54 40 28 22 22 25 26 23 24 25 35 28 44 44 33 27 26 25 22 21 18 15 19 22 20 15 15 17 20 41 46 50 55
94 92 96 96 93 86 78 67 62 71 72 62 57 51 38 27 32 31 29 28 26 32 30 34 42 31 24 23 24 24 26 25 20 15 18 21 22 18 16 16 20 32 48 52 57
90 91 98 100 95 89 74 68 68 65 69 59 47 48 46 36 38 30 28 31 28 31 31 35 27 23 25 24 23 23 25 24 23 18 16 20 25 21 18 19 29 40 44 49 53
89 93 92 95 97 90 81 74 78 67 88 62 40 38 40 42 30 26 24 31 31 29 28 32 25 23 25 26 22 25 19 21 21 22 28 19 35 22 22 20 40 46 46 49 54
99 95 95 95 96 88 82 71 82 69 95 34 34 24 22 31 23 22 22 32 32 33 31 35 24 24 24 22 20 23 20 22 22 28 30 28 34 25 25 44 48 51 49 49 51
100 100 100 100 98 92 85 85 84 97 92 46 31 29 27 28 23 20 22 23 32 34 32 29 20 20 19 18 19 17 26 26 30 34 61 34 32 30 24 22 46 46 51 53 58
99 99 100 90 94 96 91 95 99 98 35 36 34 30 30 28 25 24 25 25 43 51 48 35 30 21 18 24 22 22 40 74 62 64 55 28 32 26 22 26 39 46 56 56 60
88 83 100 99 91 92 96 98 98 55 41 22 23 34 38 31 28 27 29 32 30 34 35 39 42 28 20 26 28 28 34 62 63 68 48 26 45 33 32 33 37 44 60 62 65
89 91 96 97 100 94 100 98 77 50 31 32 30 34 42 34 33 33 35 35 21 29 37 42 38 20 18 23 25 38 42 28 44 42 73 45 31 41 46 50 50 61 68 68 68
62 86 90 97 100 100 100 96 74 42 35 35 46 36 38 40 38 38 39 29 31 20 23 32 42 26 21 22 24 31 29 49 64 62 58 44 37 55 62 61 59 70 77 78 72
62 77 70 79 100 100 98 95 73 50 38 39 48 48 39 41 33 39 37 27 28 31 24 27 38 43 28 28 31 31 35 41 46 54 64 58 63 48 60 55 60 70 77 75 76
96 99 77 84 99 100 98 94 55 46 46 47 54 54 50 47 46 37 50 31 54 46 36 27 38 48 40 26 23 26 30 36 70 65 72 76 68 51 54 50 48 57 73 74 73
82 82 71 86 98 95 97 76 63 54 50 48 62 56 57 66 61 45 56 66 72 68 76 58 54 68 49 37 31 33 31 29 40 60 60 80 61 52 42 45 45 49 69 73 74
82 97 98 99 89 86 88 96 76 53 54 50 68 57 64 75 50 57 86 82 86 80 78 72 65 46 53 43 41 43 32 33 50 68 56 64 53 43 40 58 59 63 73 75 74
83 94 78 97 96 93 76 78 95 68 50 46 97 79 68 91 63 68 94 86 74 88 92 94 100 84 51 44 46 64 52 48 65 69 80 61 76 53 46 68 60 71 71 72 73
97 89 89 91 74 80 87 92 80 83 51 58 93 80 74 76 64 81 90 94 81 60 82 80 99 94 86 46 43 60 52 58 61 61 65 72 76 52 45 41 56 51 67 74 78
81 88 96 73 94 97 82 72 94 78 64 49 58 72 68 61 58 61 65 73 70 76 72 77 83 82 78 58 60 61 52 50 58 53 54 67 59 49 41 34 36 50 50 70 74

GFSSW_850_rhum_138.txt.gz
RH
72 73 73 70 70 66 68 66 71 73 72 68 64 58 51 47 42 38 28 19 19 18 17 10 5 19 16 16 15 15 27 32 23 22 20 16 18 18 17 19 21 22 23 30 40
80 78 76 76 78 77 75 75 77 77 73 68 63 57 53 50 45 34 17 13 13 13 12 9 14 22 22 17 17 19 29 23 19 18 18 16 17 16 18 24 24 24 28 30 33
80 81 82 82 85 83 82 79 79 79 74 70 65 60 55 51 41 31 25 29 25 16 15 24 23 24 24 24 20 20 24 21 16 17 13 14 14 13 16 26 23 26 25 24 24
85 84 85 88 89 89 86 87 86 83 78 72 69 63 58 48 46 30 36 34 28 20 21 29 29 26 28 28 23 25 19 17 16 15 14 16 14 15 15 18 21 24 24 24 26
98 97 94 91 94 97 98 92 95 85 82 80 73 66 58 43 39 31 31 25 24 22 8 23 26 24 27 24 20 20 20 17 14 14 13 15 16 16 17 19 22 26 26 28 35
99 100 100 100 99 98 95 92 97 95 89 85 77 67 41 42 36 27 25 24 23 20 14 25 27 26 24 23 22 18 17 19 17 18 16 17 17 15 16 23 30 28 34 37 39
99 96 100 100 100 100 100 94 96 99 95 90 78 62 40 52 46 29 28 24 26 16 22 25 24 26 24 26 22 21 21 21 19 19 18 17 20 20 14 25 37 40 41 41 41
100 100 98 94 92 92 93 97 100 100 92 88 73 44 42 52 40 39 27 26 25 22 23 25 25 25 25 24 23 23 24 29 21 19 18 16 26 19 15 28 48 46 46 44 48
94 88 86 82 75 76 70 74 81 90 85 76 54 44 51 47 38 23 24 24 24 24 24 26 24 26 27 28 32 29 35 28 22 18 19 20 24 17 14 30 50 51 47 47 54
92 95 94 87 87 84 81 73 59 52 47 45 36 53 50 39 30 24 20 23 25 25 26 26 28 39 40 36 31 32 37 31 28 19 22 22 20 21 19 29 49 54 53 55 56
83 88 93 94 89 81 81 78 72 65 63 48 56 49 40 31 29 25 23 24 23 26 38 29 45 52 36 31 28 28 28 28 23 18 22 22 20 23 20 23 52 58 57 56 56
84 94 100 97 91 85 78 79 81 78 74 55 50 55 46 46 46 30 26 25 25 35 34 36 49 33 29 30 32 31 34 33 28 21 21 26 24 20 20 22 47 55 58 56 60
98 92 96 97 96 87 88 83 84 79 71 64 47 57 54 50 55 38 33 31 31 36 38 41 35 28 34 34 33 31 32 29 29 20 18 24 28 23 18 18 34 52 53 56 57
92 99 96 94 90 89 83 81 85 78 89 66 53 45 45 50 46 45 29 31 34 35 34 36 28 30 30 35 30 35 24 25 25 29 37 23 34 28 24 25 47 54 63 62 65
96 100 91 92 82 83 80 81 84 75 93 42 43 29 34 46 34 33 34 31 40 35 33 38 34 34 36 30 26 33 23 28 25 29 30 31 36 34 24 33 55 58 61 65 69
99 99 97 100 90 81 79 83 84 97 94 45 34 34 45 43 31 22 34 28 31 36 34 34 25 28 29 24 23 24 28 35 35 40 53 37 32 24 29 25 51 56 62 68 65
99 99 96 99 88 86 86 89 99 99 37 42 37 31 32 38 39 27 28 34 40 61 56 41 39 32 28 30 25 24 36 67 60 65 45 31 36 26 23 20 39 56 61 63 64
82 95 100 99 91 96 97 99 98 55 57 33 27 32 36 32 33 34 31 38 29 41 45 54 52 32 27 31 30 28 28 48 54 58 38 32 48 29 35 22 34 50 58 72 67
78 89 97 98 100 100 98 98 79 58 37 40 34 35 35 43 41 31 32 36 29 27 49 48 42 23 22 23 23 34 36 28 46 59 76 50 35 40 59 56 49 60 72 72 71
44 70 81 98 100 98 100 92 91 54 41 41 50 44 44 41 43 42 37 31 34 26 25 38 42 29 23 22 24 30 31 49 74 52 51 41 41 60 66 75 69 76 78 83 74
46 52 59 83 98 100 98 97 88 60 54 49 59 60 50 48 44 48 63 36 49 38 26 30 38 39 32 31 29 33 34 43 43 49 47 50 57 57 62 69 75 74 82 83 71
58 82 85 96 99 100 99 90 68 61 52 50 55 61 65 61 64 51 54 55 65 66 65 32 38 46 36 28 27 30 31 42 60 60 60 57 47 50 56 59 63 70 84 74 70
73 72 81 100 97 94 96 89 73 62 55 54 52 57 64 74 75 73 76 86 86 86 96 88 68 54 43 36 28 33 32 30 38 62 58 64 49 56 49 53 56 69 82 86 81
75 96 82 98 95 89 86 72 80 79 65 60 69 69 73 72 66 74 72 81 88 88 96 93 92 76 61 55 60 48 34 32 38 59 55 60 49 60 65 63 72 73 75 81 75
79 89 82 98 91 86 83 76 69 66 65 61 82 100 83 86 74 73 73 81 80 89 90 97 100 100 97 96 78 70 62 59 56 68 69 52 60 63 66 74 73 65 78 82 82
97 98 85 96 83 89 80 86 76 75 67 63 77 80 80 93 74 84 87 95 86 85 92 93 99 99 95 100 97 92 90 76 98 97 92 82 75 54 49 57 71 82 84 86 88
100 97 87 77 93 90 82 80 71 61 60 57 60 78 86 83 68 66 76 75 74 80 82 97 96 97 89 98 96 94 76 63 54 58 73 89 61 42 50 52 50 70 62 61 71